GFSSW_prec_cthk_039.txt.gz
RH
20 21 21 19 17 20 25 24 20 18 19 18 17 18 20 21 19 21 25 24 29 28 27 27 24 22 23 33 43 39 27 36 56 64 75 66 70 60 70 68 66 59 53 35 35
20 21 20 17 18 21 27 23 20 17 19 18 17 18 22 24 23 22 22 25 30 31 29 23 22 21 26 37 42 41 37 38 46 54 69 64 56 55 62 66 56 48 41 34 31
20 21 18 17 19 23 27 25 21 18 20 18 17 19 24 24 24 24 29 30 29 26 24 21 20 20 24 34 36 40 41 42 45 58 68 60 50 47 54 40 25 31 36 27 23
20 20 17 18 21 25 25 19 18 20 21 19 16 20 23 24 28 29 28 27 25 23 22 20 23 21 33 35 34 39 44 44 49 60 60 56 42 38 33 23 20 19 22 20 19
21 18 18 20 25 25 21 18 22 24 22 18 17 19 23 26 28 28 27 26 23 22 20 27 28 35 38 37 38 40 40 47 53 54 55 45 35 33 29 26 21 23 22 19 17
21 18 20 24 25 22 20 21 25 26 23 19 18 21 28 29 29 29 28 27 26 24 34 36 38 39 38 39 37 35 34 39 42 45 44 36 32 28 31 30 29 27 27 27 25
20 19 22 24 21 20 23 24 26 25 24 20 20 25 31 30 29 31 29 30 28 31 43 42 41 40 39 37 32 31 31 31 31 33 31 29 23 22 31 33 31 34 34 34 34
20 20 22 24 20 24 26 27 28 26 24 22 24 30 34 31 29 31 32 31 33 43 45 41 42 39 38 32 29 30 29 27 26 24 25 22 18 21 35 35 33 35 38 37 38
21 22 24 23 24 28 29 29 29 27 27 26 28 35 37 34 31 32 33 32 39 44 42 42 40 37 35 31 29 23 24 24 22 20 19 17 21 27 38 39 35 36 37 40 42
22 23 25 23 27 28 27 27 28 28 30 32 34 43 41 37 30 33 34 35 44 45 43 42 39 34 32 29 30 24 29 28 25 22 22 23 35 35 42 43 40 39 40 43 44
23 25 24 24 28 27 28 29 29 31 31 30 38 45 43 37 28 33 34 39 40 41 44 40 39 34 32 31 28 24 34 32 30 30 34 38 37 35 38 38 40 41 41 45 48
26 26 23 25 27 26 28 30 32 35 32 31 43 45 37 33 32 31 35 38 38 41 40 43 40 39 37 34 33 31 37 33 35 34 32 37 37 37 34 36 41 41 44 47 50
26 25 23 25 24 27 29 38 40 40 38 37 42 40 34 30 31 29 34 41 38 41 38 38 32 35 35 36 39 36 33 37 38 40 38 35 35 37 38 36 38 43 45 48 52
26 25 24 24 25 33 40 42 45 45 38 33 38 37 33 30 26 26 32 38 39 42 41 41 36 35 39 42 39 39 37 32 29 31 33 33 29 34 39 41 40 41 42 46 53
27 25 24 26 29 40 47 47 52 44 41 32 35 32 30 28 23 24 29 34 37 40 40 40 38 36 40 39 37 39 41 40 37 36 33 33 33 35 43 42 41 43 48 54 60
28 27 25 29 38 46 49 51 46 43 41 29 30 29 28 27 25 22 28 32 35 41 36 36 32 33 32 38 39 37 33 34 35 35 38 34 33 30 38 35 44 48 54 58 58
30 28 28 33 46 48 52 46 42 45 30 29 28 26 27 28 24 25 29 32 30 34 35 33 34 35 34 35 35 30 29 35 36 40 36 36 39 32 34 40 45 50 55 55 57
33 30 32 38 50 51 42 44 40 32 35 26 25 25 30 29 25 27 29 32 31 29 37 37 35 34 32 30 30 32 32 38 40 46 43 42 42 35 39 39 44 50 51 52 54
36 35 37 45 53 53 37 45 35 38 34 28 27 30 33 31 25 28 31 33 32 32 34 38 36 32 31 32 32 34 33 33 44 50 44 35 36 34 35 34 38 43 46 50 52
40 41 41 49 58 50 38 40 32 43 32 28 27 29 29 30 27 27 31 33 32 31 31 35 38 33 32 30 31 31 34 38 38 39 35 30 32 27 31 33 35 40 43 46 51
46 51 47 55 62 45 38 36 39 45 33 27 26 24 24 28 28 25 28 28 29 29 29 31 35 37 37 34 32 33 36 34 33 36 32 34 24 27 28 31 33 37 41 46 50
49 58 57 56 57 43 35 35 47 43 33 27 25 25 24 27 30 29 27 27 27 27 30 33 40 45 44 38 33 33 32 30 30 28 39 37 26 24 26 29 33 37 41 45 48
52 58 65 53 50 43 36 45 48 41 33 29 31 32 33 35 37 37 34 33 33 33 34 34 39 45 41 37 37 33 32 31 30 32 32 41 23 24 27 28 32 37 41 45 50
54 67 69 55 39 37 41 48 49 42 36 33 34 35 37 40 43 47 39 34 36 37 36 33 36 38 40 34 35 31 33 31 29 33 28 28 22 20 25 27 31 36 41 47 52
58 57 56 52 41 37 46 49 48 44 38 37 37 34 36 41 45 50 49 44 44 44 42 35 34 36 37 37 33 28 26 28 26 25 26 20 21 19 21 25 30 35 41 46 52
56 51 50 43 38 38 50 50 47 47 40 34 35 36 36 38 37 50 48 47 42 44 43 39 38 36 37 38 36 32 27 25 27 26 25 25 22 21 24 26 31 36 41 46 51
58 47 43 48 42 41 48 48 47 47 43 37 32 33 34 36 38 43 44 40 39 40 43 39 40 39 38 37 32 32 25 25 25 24 24 27 19 23 26 28 30 35 41 45 49

GFSSW_prec_cthk_042.txt.gz
RH
17 18 19 20 21 18 16 19 23 24 21 17 17 16 15 19 19 17 18 19 23 25 29 29 25 26 25 26 33 38 39 47 61 61 65 64 61 65 69 64 66 62 63 53 49
17 18 19 20 20 17 17 19 24 23 21 18 17 16 16 19 21 20 21 20 22 26 31 31 25 25 26 26 38 40 38 41 58 69 64 68 63 59 63 61 66 58 52 39 41
18 18 19 20 18 17 18 21 23 21 19 18 19 16 16 21 23 23 24 21 22 31 31 26 23 24 23 32 42 42 40 42 41 60 61 56 60 54 44 46 47 42 47 35 42
19 19 20 20 17 18 21 22 20 18 18 19 19 15 18 22 28 27 24 28 30 27 25 23 21 22 21 31 38 41 40 41 46 61 61 66 51 43 40 32 28 35 39 32 33
20 20 21 20 17 21 23 21 18 19 22 22 20 15 20 22 28 28 27 27 26 25 23 24 23 24 28 33 37 39 45 49 55 59 59 56 54 35 28 23 21 27 33 31 29
21 21 22 18 18 21 20 19 19 21 24 22 19 18 20 26 28 27 29 28 27 25 27 29 31 33 38 40 41 41 45 57 53 49 52 52 38 38 32 30 27 29 31 27 25
22 21 22 18 19 21 19 20 22 22 24 23 20 20 24 30 29 30 30 29 28 33 40 41 40 42 42 44 41 42 40 45 47 48 42 38 32 31 34 38 39 35 32 29 28
22 22 21 20 21 20 20 24 25 25 25 24 23 23 28 30 27 31 31 31 32 42 45 44 42 44 44 39 37 34 33 38 41 39 33 28 24 29 34 40 40 41 41 39 39
22 23 20 20 21 20 24 27 26 27 28 25 27 28 31 34 29 32 33 31 38 45 45 44 42 43 43 38 32 31 33 31 31 30 26 22 21 25 35 37 44 46 45 44 48
23 23 21 21 22 20 26 26 26 26 27 27 31 35 34 37 33 33 31 32 44 44 48 47 43 39 38 35 32 29 26 24 23 22 21 20 25 27 35 40 47 48 47 46 46
23 24 23 23 21 23 25 27 30 30 27 29 31 37 42 38 34 34 34 36 43 47 46 43 40 36 34 30 29 27 33 30 27 25 26 26 32 35 41 44 43 39 41 44 48
24 25 24 24 21 24 25 30 29 34 32 29 34 42 42 38 33 33 36 37 44 48 41 42 42 37 35 31 29 28 32 40 39 32 32 34 34 33 34 37 39 41 42 44 48
25 27 26 24 21 23 23 29 33 40 39 30 38 42 40 36 36 31 36 42 41 41 46 44 39 39 37 36 35 36 35 40 35 39 38 36 35 36 35 37 36 38 42 44 50
26 29 27 23 22 22 26 35 39 44 37 30 40 42 38 34 30 29 34 44 40 46 39 42 37 34 33 35 37 38 35 30 29 34 38 34 34 35 36 36 36 40 43 46 48
28 29 28 24 22 24 35 41 45 47 40 33 38 39 35 34 30 31 30 44 42 39 42 41 40 37 38 38 37 42 41 41 38 36 33 31 29 38 34 34 36 37 42 44 46
31 31 29 24 23 32 42 47 54 52 44 29 33 33 32 30 28 29 29 33 41 41 44 43 43 40 37 38 39 42 40 35 37 37 34 29 26 24 31 29 33 38 45 45 51
33 32 30 24 31 41 48 53 53 47 32 28 28 30 29 28 29 27 29 32 39 43 46 43 40 37 35 36 36 40 36 32 33 34 31 31 28 23 27 30 36 41 46 50 52
35 34 30 25 40 50 52 55 48 32 31 27 27 28 28 27 28 26 29 32 35 37 44 37 36 31 34 37 35 32 30 30 28 32 31 33 30 32 31 32 36 44 48 49 49
39 35 30 30 50 57 56 59 42 33 31 27 29 28 28 28 27 27 31 34 33 32 32 33 35 33 33 33 31 32 30 31 34 40 38 27 26 28 29 30 32 39 44 47 48
43 37 31 39 56 62 60 50 38 34 28 28 24 25 28 28 25 24 28 31 32 31 32 33 37 33 32 31 32 31 31 32 33 36 27 21 22 21 24 27 30 35 39 43 46
49 44 35 44 65 68 57 45 33 33 33 27 23 27 29 33 29 26 30 31 31 32 32 31 31 34 33 32 31 33 32 31 31 30 25 22 18 20 22 23 27 32 36 40 45
54 46 39 50 74 72 57 44 32 33 38 29 26 26 25 27 27 24 24 27 29 28 29 28 30 35 34 34 34 29 31 30 27 26 32 31 19 17 19 21 25 29 35 38 43
58 54 49 55 75 73 58 38 35 36 36 31 27 24 23 24 28 27 25 24 26 26 25 25 31 37 36 35 38 34 32 29 27 27 28 38 17 17 19 21 23 27 33 37 41
63 56 58 61 75 68 51 38 37 46 39 32 28 32 30 31 31 36 34 30 30 29 31 31 32 32 35 36 34 35 33 30 27 31 23 21 14 17 19 19 22 24 29 35 39
64 54 45 65 74 59 48 36 41 50 42 33 30 32 33 37 38 40 42 34 33 33 35 35 36 33 33 33 34 31 30 29 28 23 24 15 15 15 18 18 22 23 28 34 40
62 55 53 60 65 52 49 42 48 51 41 34 33 33 32 32 31 40 42 43 40 44 42 40 40 36 34 35 35 33 29 27 26 23 23 21 18 19 20 21 23 25 29 33 38
62 49 46 69 58 45 43 47 51 52 45 38 38 37 36 36 35 36 45 45 44 42 42 43 42 39 35 34 33 38 28 25 24 23 24 25 22 23 21 23 26 28 29 33 39

GFSSW_prec_cthk_045.txt.gz
RH
18 18 18 17 18 19 19 16 15 16 19 20 18 16 17 13 15 20 20 19 20 21 25 28 27 25 28 30 29 27 35 37 40 48 70 73 65 58 57 61 68 65 69 55 62
20 19 18 18 18 19 18 15 16 17 19 18 17 15 15 13 17 23 22 20 18 21 25 32 35 29 27 29 29 33 35 37 52 80 73 70 71 60 56 62 71 72 69 53 48
21 20 18 18 18 19 17 15 18 18 18 16 15 16 16 14 23 27 25 23 18 20 29 34 32 27 28 29 30 39 39 43 50 72 58 44 49 56 64 66 54 59 72 42 51
22 20 19 18 19 19 16 16 20 18 17 16 17 17 15 16 34 32 27 23 24 29 30 31 27 26 28 29 36 40 40 37 41 60 52 48 60 54 61 50 52 56 52 43 54
23 21 20 20 19 19 16 18 18 16 17 18 20 19 16 22 24 29 27 23 27 27 28 28 28 29 28 30 35 37 45 40 50 54 50 53 73 61 27 22 29 44 40 48 53
24 22 22 21 19 18 17 18 17 17 19 20 21 19 21 23 25 30 27 28 29 27 27 27 29 31 36 38 36 41 46 51 58 61 53 52 68 44 30 27 33 33 43 46 45
26 24 23 21 20 18 17 18 17 20 21 21 21 20 24 21 29 30 30 31 31 33 35 34 34 37 41 45 41 44 49 56 57 59 54 60 51 48 33 32 34 37 39 35 31
26 25 22 21 21 19 19 18 19 22 22 23 23 24 29 26 31 29 31 32 34 37 41 42 42 42 47 45 44 47 40 50 49 46 40 57 44 30 36 38 41 40 37 35 33
25 23 22 21 21 19 19 18 21 23 23 23 25 29 30 30 30 31 33 35 37 42 44 44 47 48 48 41 42 37 39 42 41 36 32 46 38 26 36 45 48 45 44 42 41
24 22 22 22 22 21 20 19 22 23 23 22 27 32 31 37 35 32 33 33 44 46 47 48 48 48 46 40 37 34 36 36 37 32 35 31 33 23 31 41 55 53 48 47 47
24 22 23 23 23 21 20 20 25 32 27 27 32 31 38 38 35 32 32 35 46 48 48 47 47 46 47 40 40 38 29 29 28 25 28 29 31 27 32 39 51 51 47 47 51
23 23 24 24 24 23 21 27 31 42 35 23 27 31 38 40 37 34 31 36 47 50 51 50 52 48 41 35 35 33 40 32 32 26 28 29 37 33 36 38 42 45 45 48 52
23 23 25 26 25 23 21 24 30 35 40 33 26 32 38 38 36 40 34 38 48 47 49 56 50 38 36 35 36 36 37 51 40 30 31 39 40 28 29 36 40 43 47 50 49
24 25 26 28 26 25 22 23 33 39 46 32 27 30 35 36 37 38 33 39 46 48 46 57 49 41 39 41 35 44 31 34 33 27 37 32 36 47 40 31 37 41 44 45 49
26 26 28 30 31 25 32 31 40 44 53 31 28 36 38 34 41 30 29 38 46 42 41 50 42 35 37 44 28 54 33 37 37 34 42 43 29 37 49 40 37 34 40 46 50
27 27 30 30 27 26 31 41 47 55 55 34 33 33 35 34 31 36 28 33 49 44 44 52 44 38 49 35 37 37 39 43 37 39 43 32 41 32 43 47 43 34 40 45 46
29 29 31 33 33 28 35 50 56 55 36 33 31 32 31 31 30 27 31 30 41 39 46 49 48 39 36 37 35 36 41 51 51 42 39 39 32 29 34 34 34 34 41 47 47
32 30 33 33 31 32 44 57 60 35 38 32 27 30 30 32 28 27 34 30 31 41 40 47 48 37 33 38 51 44 44 45 42 36 33 40 25 42 31 25 27 36 43 47 44
34 34 37 32 29 40 50 62 54 38 36 32 28 29 31 31 29 27 31 37 36 31 47 48 48 43 34 32 36 47 33 36 36 39 32 21 35 28 23 25 27 35 41 46 46
38 42 38 37 31 51 53 57 51 41 37 33 29 27 33 28 26 26 33 38 44 34 38 47 49 42 32 33 31 30 39 34 32 37 32 25 24 33 26 22 23 31 37 41 42
51 52 41 39 35 60 51 52 50 46 43 33 29 29 31 28 26 27 33 36 32 29 29 40 37 50 35 30 35 40 29 27 30 37 37 28 28 24 18 20 23 27 33 37 38
59 59 52 41 43 53 52 49 50 49 41 34 32 30 30 33 29 33 30 37 29 31 31 37 41 41 38 35 27 28 31 31 34 34 30 34 22 21 17 19 21 24 30 33 36
65 67 70 46 41 52 49 52 54 46 41 39 30 28 28 32 33 31 30 37 31 30 33 35 29 36 41 31 25 27 30 28 32 33 30 37 25 24 19 16 18 21 26 31 34
70 72 74 57 41 52 50 52 53 47 46 43 34 32 29 28 30 34 32 28 25 27 26 26 23 34 40 44 47 42 34 34 34 34 26 23 24 24 21 20 20 21 23 29 33
79 59 55 54 41 53 56 59 53 44 41 45 42 37 29 31 31 34 36 33 29 28 28 30 31 32 32 35 35 35 33 34 33 30 32 25 22 17 20 20 21 24 24 28 35
81 59 58 48 44 62 61 62 51 42 43 47 41 33 34 37 35 38 37 39 36 32 33 32 37 35 37 34 30 30 29 30 28 28 26 24 24 22 22 23 22 22 26 29 34
72 70 61 58 55 62 56 60 48 50 51 52 39 39 41 46 42 38 42 43 46 44 44 46 44 43 41 35 31 36 27 26 26 26 27 28 25 29 27 25 25 26 28 27 30

GFSSW_prec_cthk_048.txt.gz
RH
17 17 19 19 18 18 16 17 17 13 14 15 15 14 15 13 12 11 18 21 19 18 19 23 27 25 29 30 32 29 28 31 36 53 66 68 76 83 71 61 56 60 72 69 60
18 19 20 20 19 18 17 17 16 13 15 15 14 14 13 13 11 14 22 21 19 18 19 24 31 34 29 28 31 30 30 39 54 55 60 59 72 82 62 66 65 72 68 60 59
21 21 21 21 19 18 18 17 15 13 17 15 14 14 15 13 19 27 26 24 22 18 19 28 37 37 31 30 32 30 32 43 55 52 46 49 61 72 67 64 65 82 75 61 55
23 22 22 22 19 19 18 17 14 14 16 14 14 16 17 15 38 29 26 24 22 21 23 32 37 32 30 32 33 33 40 42 53 51 48 57 86 79 73 61 55 73 54 45 56
26 24 24 23 21 20 18 17 15 15 15 14 16 17 17 23 23 28 23 23 22 24 28 33 33 30 30 31 34 39 38 39 41 60 58 60 64 69 54 44 64 63 43 43 44
28 27 26 24 22 21 19 17 15 16 15 17 18 17 19 24 25 27 26 23 25 26 28 32 34 33 35 42 36 40 41 45 51 54 53 59 66 56 44 52 44 36 38 37 38
31 29 28 25 23 20 19 17 16 16 16 18 20 18 23 21 27 33 28 29 31 36 32 34 33 36 40 43 45 45 42 42 49 52 60 66 67 55 41 38 37 43 44 45 41
34 30 29 25 22 20 19 17 16 16 17 19 21 20 23 24 28 28 28 33 34 35 37 41 40 39 46 50 42 43 43 50 47 47 59 61 71 48 34 34 38 38 35 36 30
36 30 27 25 22 20 20 17 17 16 17 19 22 26 27 29 29 27 29 36 37 37 39 41 41 44 49 49 47 45 44 42 38 42 54 56 48 34 36 39 37 35 34 31 31
34 28 24 24 22 21 20 18 17 15 18 21 22 27 24 32 34 33 37 34 40 41 44 46 46 48 50 50 46 45 39 38 38 31 44 44 43 39 35 44 43 42 36 37 37
34 26 23 23 23 22 20 19 29 34 29 24 30 27 35 36 34 29 35 32 39 47 53 49 51 51 52 45 44 43 41 39 37 31 28 32 39 29 23 38 52 49 42 40 40
34 25 22 23 24 23 21 23 33 36 35 30 20 25 32 35 32 31 34 33 40 52 46 52 58 51 48 45 43 37 40 38 32 27 22 32 29 26 20 28 44 47 47 45 44
35 26 21 23 24 23 21 21 25 32 33 32 25 21 27 34 32 32 31 33 46 50 49 49 63 54 54 44 37 37 45 41 45 32 21 36 29 33 29 32 34 36 43 45 46
39 27 21 23 26 26 25 22 21 33 35 33 28 24 29 34 32 33 35 33 38 50 51 56 57 51 49 42 39 48 48 45 47 44 34 35 51 46 43 36 42 45 40 41 43
43 30 22 25 31 29 39 29 31 41 55 33 30 25 28 32 37 34 36 32 36 49 52 61 49 52 42 41 43 41 44 46 39 37 40 46 51 49 49 40 39 44 46 45 48
45 35 24 25 27 29 31 34 36 48 50 31 26 27 36 35 37 35 30 28 33 46 50 51 58 55 46 46 32 31 33 35 37 39 44 48 54 55 54 57 60 55 45 41 45
45 37 25 30 32 29 30 41 49 48 32 37 30 30 34 35 37 30 34 28 30 44 45 42 41 42 38 34 28 27 35 45 81 74 46 33 39 36 48 54 48 48 47 45 47
42 41 27 28 38 37 37 52 52 34 42 32 32 31 35 37 35 34 31 31 27 38 38 50 56 45 32 31 45 45 44 64 66 62 51 43 41 39 31 31 31 34 37 41 44
43 42 31 28 35 38 48 58 45 38 41 42 37 37 37 36 37 34 27 33 30 30 38 49 53 55 45 34 31 54 47 45 41 47 42 22 17 38 38 25 20 28 33 38 42
45 46 34 32 37 41 50 49 44 37 42 44 43 35 35 35 34 38 31 33 32 35 38 48 58 67 47 35 24 25 33 40 37 38 34 33 31 48 43 32 19 28 33 37 39
54 49 39 38 44 44 45 44 41 41 49 45 43 36 32 41 38 33 31 33 37 49 43 40 55 59 53 34 24 39 43 29 27 42 52 44 43 36 33 26 20 25 32 35 36
66 59 43 42 49 37 38 39 36 44 53 45 46 39 36 42 39 31 31 39 33 37 34 29 44 46 41 39 31 33 40 39 51 36 41 42 38 34 28 21 20 22 31 34 36
61 71 67 48 42 36 36 42 38 47 58 52 48 38 36 40 44 37 41 39 38 30 30 36 35 41 38 44 35 29 21 25 31 42 38 55 31 27 26 24 23 20 26 32 35
57 74 77 66 39 35 37 42 44 48 48 52 46 36 38 41 49 41 39 36 34 33 29 32 36 33 38 32 49 50 47 33 39 49 38 35 26 33 29 28 26 24 22 28 35
62 58 55 59 53 40 42 42 41 48 47 53 48 38 38 38 44 41 41 38 31 27 24 26 27 25 26 35 41 40 45 43 39 39 42 34 31 30 28 34 31 28 26 27 28
63 66 54 52 56 47 42 42 44 49 48 51 53 43 38 44 37 41 43 41 30 28 25 26 30 37 38 37 36 35 31 31 30 31 31 32 31 31 33 32 28 28 26 26 30
62 57 68 51 54 47 37 46 48 58 52 51 47 48 42 48 53 51 45 50 42 42 36 36 38 45 44 37 34 38 26 24 23 26 31 32 30 31 32 31 30 27 27 28 28

GFSSW_prec_cthk_051.txt.gz
RH
17 16 16 16 17 19 19 18 16 16 15 12 14 12 11 11 10 11 12 16 20 19 17 18 23 24 32 34 34 32 27 28 37 56 64 64 60 69 63 65 72 67 61 59 73
20 19 18 18 19 20 19 18 17 16 14 12 13 12 11 12 10 13 19 21 19 20 18 18 25 28 29 29 32 33 30 32 43 55 60 60 59 60 58 57 70 74 68 73 75
22 21 20 20 20 20 20 18 17 16 13 13 13 12 12 13 18 25 25 23 22 21 17 18 29 34 34 28 30 33 31 40 45 55 54 56 56 58 62 59 68 80 76 80 72
25 23 23 22 22 21 21 19 17 15 13 13 13 12 13 15 30 27 25 21 23 21 20 23 31 34 30 30 32 33 34 43 56 56 58 59 62 69 73 60 62 71 85 68 71
28 25 25 25 24 23 22 19 17 15 13 14 13 14 15 17 18 25 26 21 22 22 24 30 33 31 31 34 36 34 39 45 55 59 60 62 60 54 60 63 64 58 61 58 81
34 30 28 28 26 25 23 19 17 15 13 14 14 15 17 20 22 26 24 25 25 26 26 29 32 34 34 36 47 43 44 45 52 53 60 56 56 62 57 57 54 46 57 57 66
42 36 32 30 28 26 24 19 17 15 14 14 15 17 17 15 23 28 29 29 30 33 33 30 32 34 38 46 43 43 45 46 49 62 58 50 50 54 68 65 42 46 48 54 44
46 41 35 31 29 27 23 20 17 15 14 14 15 17 16 18 21 27 27 29 36 37 37 37 36 37 40 44 45 42 43 47 52 63 62 56 49 45 50 51 46 53 58 45 34
43 41 36 31 29 26 23 20 17 14 14 14 16 25 19 21 24 24 27 30 34 39 41 43 38 36 40 43 47 45 50 49 50 61 61 58 49 43 45 45 39 39 37 38 34
41 39 35 30 28 24 22 20 17 17 17 16 16 22 17 23 28 29 30 30 36 44 45 46 41 45 49 48 52 48 45 42 45 47 50 53 52 47 40 32 32 34 32 32 30
44 39 32 27 25 22 22 20 27 31 30 25 21 20 23 29 33 31 31 29 35 46 52 49 52 53 54 49 49 50 47 42 37 41 43 49 44 38 35 30 36 35 34 29 30
42 41 32 25 23 21 22 22 29 29 25 23 21 24 23 28 32 32 35 31 32 45 50 49 58 56 51 55 53 48 48 47 41 41 27 35 38 32 38 33 37 43 33 32 32
40 43 35 25 21 20 22 21 23 27 25 16 18 19 20 24 29 31 37 33 35 47 50 50 46 50 47 51 53 55 50 49 46 40 24 33 39 39 33 33 32 33 34 38 33
36 44 39 26 21 25 26 25 20 24 35 20 22 26 18 22 29 29 33 32 37 42 46 46 45 52 53 52 58 60 50 50 41 35 30 38 48 44 41 42 41 42 46 44 48
32 43 44 28 25 33 34 28 29 33 54 28 28 23 18 24 30 29 40 40 35 44 51 47 52 51 55 52 57 48 36 40 43 47 49 47 46 43 46 52 52 45 46 47 47
31 38 46 31 23 34 36 33 35 46 52 29 25 23 23 24 30 32 44 38 34 43 44 46 47 49 55 48 46 32 33 42 47 55 58 43 48 53 46 47 53 46 49 52 56
27 35 42 35 26 36 36 39 47 56 22 31 26 25 26 27 29 31 38 34 30 39 46 49 46 50 52 49 46 36 34 54 59 64 51 48 54 53 41 38 34 34 41 48 52
32 38 47 36 36 39 36 50 57 30 28 27 27 28 28 29 29 35 36 39 29 32 45 51 49 48 52 49 50 47 40 54 58 72 64 56 60 50 45 41 40 39 36 37 41
40 46 48 40 39 43 46 55 40 28 25 31 29 33 32 28 36 39 37 29 31 27 37 50 53 54 53 50 49 40 52 53 56 53 58 39 34 36 34 47 39 30 32 38 34
47 49 37 49 38 49 50 45 38 28 39 40 43 32 34 31 33 48 40 29 31 32 34 45 57 57 57 50 39 37 34 52 49 40 36 33 42 52 47 47 42 33 29 31 34
43 54 48 62 41 52 52 45 39 28 41 44 43 38 34 38 34 47 42 33 31 38 42 46 48 50 53 54 35 40 39 40 37 43 53 57 50 45 45 37 29 35 26 26 29
44 48 52 47 59 53 49 40 41 26 43 46 41 39 39 33 43 46 42 34 35 46 52 48 49 63 63 47 45 39 39 43 54 39 45 49 37 35 41 36 33 28 29 30 31
49 43 54 43 50 50 46 41 33 28 42 46 42 40 37 36 47 50 40 41 37 46 41 46 46 47 49 55 45 43 39 32 38 47 43 51 40 33 30 33 31 30 30 34 34
50 58 55 59 43 38 45 39 33 26 43 47 47 43 41 41 41 51 48 49 39 42 39 31 33 35 39 35 31 43 42 44 42 54 42 44 37 34 33 35 34 32 30 33 36
51 47 51 68 58 47 46 37 34 34 43 48 50 48 42 44 38 52 57 48 44 38 33 33 31 34 31 27 30 40 42 47 47 47 51 46 43 34 39 39 38 38 37 35 36
59 40 44 53 70 60 48 38 32 27 40 44 52 45 40 42 39 49 59 45 41 39 32 28 30 25 29 28 34 33 35 33 43 39 35 35 36 38 41 40 40 39 37 38 41
51 41 44 41 63 72 50 43 34 32 35 43 45 48 46 38 35 44 47 41 39 40 31 28 29 35 37 32 34 38 28 26 26 26 29 31 33 35 37 36 34 33 33 34 30

GFSSW_prec_cthk_057.txt.gz
RH
16 16 16 18 19 18 18 17 17 17 18 18 16 14 11 9 8 9 13 17 18 20 20 21 20 21 26 30 36 36 36 35 37 47 54 58 55 56 56 58 59 63 66 70 72
21 20 20 21 22 22 20 19 19 18 19 19 17 14 11 10 9 14 18 20 19 22 23 22 21 24 28 35 37 37 34 31 35 45 55 56 55 57 57 58 67 69 69 74 78
33 28 26 26 25 24 23 21 20 20 20 20 18 14 11 10 10 18 20 20 21 23 21 22 21 28 34 35 37 37 36 35 34 40 46 54 56 54 56 56 68 75 79 81 81
41 41 36 32 28 26 25 24 22 22 21 21 18 14 12 11 14 19 20 20 21 23 21 23 27 38 39 39 37 36 38 41 39 41 49 53 52 56 56 58 69 78 85 76 85
44 44 42 37 32 28 27 25 24 24 23 22 19 14 12 12 11 17 19 21 22 22 21 29 34 35 38 39 43 36 40 42 39 46 56 52 51 54 59 66 74 78 78 77 81
42 42 42 41 37 32 29 27 26 26 25 23 19 14 12 14 14 17 19 23 25 25 25 31 35 37 38 41 45 47 52 54 50 55 55 49 49 54 61 72 75 71 76 71 67
34 40 43 44 42 37 32 30 29 27 26 23 19 13 12 12 13 17 19 25 28 28 29 33 34 38 40 42 48 53 53 53 49 51 53 52 55 58 62 61 70 67 63 66 59
36 37 41 41 41 40 35 32 30 28 26 24 18 13 11 11 11 16 21 28 30 30 33 35 34 34 37 42 48 51 49 49 50 54 55 60 57 55 55 60 66 55 52 47 44
35 39 47 39 40 39 35 31 30 28 26 23 18 14 11 12 14 17 24 26 28 30 35 39 40 38 37 46 50 50 50 49 48 57 55 55 52 53 53 52 53 50 44 47 41
31 38 51 42 41 39 37 31 29 28 26 25 22 18 11 16 17 20 24 27 29 32 39 42 41 38 41 43 51 51 52 53 52 56 58 53 49 42 44 47 46 44 48 44 41
29 35 37 39 40 40 38 30 30 34 32 23 20 13 15 17 18 22 24 25 28 35 44 48 53 51 47 47 51 53 52 54 50 52 54 54 56 50 49 49 47 53 52 46 40
28 33 34 53 48 41 35 30 32 34 28 20 18 16 18 21 22 22 24 27 27 36 43 50 56 54 54 51 50 50 54 54 46 47 48 47 46 45 50 51 46 46 49 45 39
27 30 33 36 51 45 35 32 34 28 28 18 17 15 15 20 23 22 26 26 27 30 41 49 50 52 52 51 50 50 54 53 50 42 42 38 37 35 39 51 50 51 43 45 43
27 36 36 38 48 43 36 42 32 27 32 20 20 15 14 20 20 21 25 26 29 29 36 46 50 51 50 49 48 52 52 51 49 45 40 35 39 35 35 42 43 49 51 49 42
27 32 41 41 40 40 50 42 34 34 31 18 20 20 15 19 19 19 24 26 28 31 38 46 48 46 48 47 45 47 47 46 46 46 46 40 35 32 35 44 43 43 50 48 42
28 29 33 34 41 43 56 47 45 47 36 27 24 24 20 18 20 22 25 28 30 32 37 45 50 51 48 47 44 42 45 47 49 50 54 43 42 40 37 37 41 46 48 45 40
26 30 44 37 35 52 53 55 58 61 23 29 26 25 22 18 23 23 24 28 30 33 37 45 52 52 51 47 45 42 45 49 50 57 53 46 46 43 37 40 35 38 38 39 42
23 27 40 37 46 52 59 67 62 42 31 30 25 25 22 18 23 24 25 28 30 29 40 46 52 48 50 49 51 48 46 55 43 54 53 47 48 39 42 43 39 33 31 34 36
25 27 43 34 50 56 65 67 54 39 28 28 28 29 27 21 24 26 27 27 29 28 33 45 46 50 51 53 51 50 51 44 51 54 62 51 41 36 38 39 43 42 33 31 30
31 30 29 34 62 67 67 59 50 39 37 34 32 27 26 24 27 29 29 25 26 29 26 31 42 49 56 55 55 54 53 50 54 52 52 43 40 40 39 37 30 29 34 31 27
37 36 23 34 62 69 57 58 51 37 43 43 44 34 27 29 26 29 28 25 26 28 30 30 35 45 49 53 51 55 54 51 48 56 51 55 42 34 38 31 29 30 37 33 30
37 40 27 33 68 62 60 53 49 34 41 47 49 42 33 30 30 30 29 28 28 31 35 33 35 42 38 46 48 49 51 55 50 44 52 58 39 27 32 37 36 36 38 38 36
40 43 42 34 59 60 52 55 48 37 42 42 50 50 43 35 33 32 29 30 30 33 38 40 45 48 42 42 47 54 51 51 52 50 53 58 43 29 29 26 28 31 34 36 43
43 56 57 52 39 58 58 54 50 33 40 45 50 56 51 46 34 33 33 34 36 35 36 37 44 42 49 47 52 56 52 50 54 60 49 47 35 32 34 33 31 32 32 33 35
54 46 43 56 46 55 56 56 49 42 40 43 48 54 54 54 42 38 38 35 38 38 42 39 44 48 46 50 47 47 52 55 50 45 45 39 40 38 37 38 36 32 32 34 34
54 54 48 40 41 49 53 56 57 46 37 38 41 46 49 53 47 44 41 39 39 44 44 45 45 48 50 48 44 42 39 42 43 38 38 33 35 37 34 35 35 34 34 37 38
48 58 50 42 43 51 44 46 46 53 38 32 33 44 46 53 56 51 47 43 40 44 48 48 51 52 47 46 46 52 39 37 34 32 30 34 30 35 38 40 39 38 36 37 40

GFSSW_prec_cthk_060.txt.gz
RH
20 18 17 16 16 17 18 19 20 20 19 18 18 19 17 14 12 11 13 15 15 16 19 22 22 23 24 25 34 38 38 39 35 40 49 56 58 58 58 59 64 66 65 67 75
32 27 23 20 19 20 21 22 22 22 21 20 19 20 18 14 12 14 17 17 17 19 22 23 23 24 27 29 35 39 39 39 35 38 49 53 58 58 57 59 64 68 70 75 76
40 37 35 29 25 23 24 25 25 24 23 21 21 21 19 14 11 16 17 17 17 20 22 23 21 26 31 32 34 39 37 40 39 37 41 52 58 59 58 57 60 65 73 77 78
43 41 39 37 34 32 30 28 26 25 24 23 22 22 19 15 14 17 18 16 17 21 22 22 25 31 37 40 37 31 40 41 45 45 47 57 54 55 55 56 62 67 71 73 80
38 43 44 43 42 40 35 29 27 27 26 25 24 23 19 15 12 14 16 16 18 21 21 26 32 36 37 40 42 41 41 45 44 48 55 54 52 53 59 61 64 70 68 77 80
42 40 43 45 44 43 39 33 30 29 28 26 26 24 20 16 11 13 16 18 21 19 23 29 32 35 38 41 43 52 49 45 50 53 53 51 54 51 57 63 66 70 67 65 72
39 41 41 44 44 43 42 38 33 31 30 28 28 25 20 13 11 15 16 19 25 23 26 29 32 34 39 41 45 50 52 53 49 53 54 52 53 54 58 67 66 69 65 57 60
33 39 39 40 43 44 42 41 36 32 31 29 29 26 19 13 10 14 17 23 28 26 29 31 32 31 36 43 45 51 50 54 56 54 55 55 52 59 63 63 58 54 56 55 47
32 37 40 38 42 43 45 41 36 31 30 29 29 27 19 13 11 13 19 25 28 28 30 33 36 35 34 43 47 46 49 56 52 57 58 57 54 59 63 60 55 47 52 44 53
29 33 40 39 41 47 47 44 36 30 31 31 31 30 19 14 14 16 20 23 27 29 35 38 40 37 38 45 53 49 50 53 55 54 54 55 54 54 60 60 52 50 50 48 43
27 32 40 41 42 46 59 42 33 35 37 30 29 25 18 17 15 18 21 23 25 29 39 42 45 46 45 48 47 49 54 55 53 54 53 52 52 55 59 58 61 55 51 47 42
24 31 41 42 41 41 48 56 34 36 37 28 26 26 20 21 20 20 22 22 25 29 38 42 50 47 50 55 53 52 56 57 55 52 54 47 43 49 56 56 52 53 48 43 40
25 26 38 44 43 40 54 60 52 43 39 25 21 21 17 17 19 20 22 22 27 31 36 41 43 46 47 50 54 51 53 51 47 48 49 45 39 35 40 45 49 49 43 44 43
27 27 33 47 46 44 51 51 59 48 37 27 23 20 18 17 20 20 22 23 26 30 34 35 41 43 45 47 49 51 49 51 49 45 44 41 43 34 32 38 39 48 50 53 53
27 27 32 43 53 45 50 49 53 47 35 23 26 24 18 17 17 19 22 24 27 30 32 34 42 44 46 46 45 49 50 51 50 52 48 46 43 36 34 40 38 44 46 50 50
32 29 28 35 46 59 61 60 58 58 48 26 31 26 21 18 19 19 22 24 26 32 33 32 40 43 44 44 45 47 49 49 53 52 55 49 46 39 39 38 40 42 45 47 45
30 30 28 32 40 61 73 71 67 71 31 30 34 29 20 19 20 21 22 24 27 33 34 34 39 41 42 46 44 44 47 51 49 57 52 45 47 39 39 39 40 39 41 44 39
33 28 29 31 34 52 69 73 70 49 46 33 33 31 27 21 21 23 23 25 26 30 36 37 40 40 43 47 48 47 46 59 48 56 49 38 40 34 36 41 40 38 34 31 33
33 32 28 28 34 56 68 77 60 48 42 35 33 35 31 23 20 25 25 24 24 27 31 37 37 42 48 48 50 53 52 49 59 60 63 45 35 27 34 36 39 39 39 29 26
40 34 26 21 35 63 77 62 58 46 44 40 39 34 30 25 24 26 27 23 24 27 29 32 38 44 46 49 49 52 52 56 60 56 55 48 43 38 30 39 36 33 28 28 26
44 41 23 19 33 66 70 65 60 46 53 50 47 40 32 31 25 27 27 24 25 28 29 32 31 38 47 44 51 54 52 53 54 60 59 60 44 39 33 32 31 30 30 27 30
52 43 24 19 43 56 63 57 54 49 50 52 50 49 39 31 29 28 27 25 25 28 29 29 34 36 36 41 44 44 44 49 62 53 62 58 44 34 32 33 33 33 33 34 36
53 44 36 23 42 43 54 62 52 47 49 49 51 52 45 36 33 31 28 27 27 29 32 35 35 37 34 37 39 43 43 48 52 57 59 60 45 33 35 31 29 32 34 35 34
62 56 56 53 23 33 49 57 62 54 47 47 54 55 51 44 36 33 31 28 29 34 33 37 43 38 37 33 40 46 44 48 52 65 55 54 43 38 35 34 37 35 32 28 30
67 57 46 57 37 35 40 42 54 56 42 44 46 58 60 52 41 36 35 35 34 37 38 39 42 44 40 39 45 50 47 48 48 50 51 48 47 36 29 30 35 37 35 35 36
76 57 48 45 34 41 51 45 49 46 55 47 47 50 68 62 46 44 43 41 39 43 43 42 43 44 47 47 47 50 44 42 41 50 47 44 39 35 32 29 31 37 38 40 41
72 57 47 44 44 46 39 44 44 44 46 45 34 36 59 62 54 52 50 46 46 44 44 47 52 51 52 50 48 53 42 41 33 29 29 33 29 31 30 30 30 34 41 42 43

GFSSW_prec_cthk_063.txt.gz
RH
32 28 24 21 19 18 18 18 18 19 20 22 22 20 18 17 16 17 16 16 14 14 17 18 20 23 25 22 28 34 38 40 38 39 45 54 54 60 61 63 63 63 67 67 73
45 42 37 34 29 24 22 20 20 21 23 24 23 22 20 18 16 19 18 17 16 16 18 20 21 23 25 28 30 34 38 39 38 37 41 49 52 56 58 60 61 62 66 71 74
41 44 44 42 39 35 30 25 23 23 26 25 24 23 21 19 17 20 19 16 16 17 18 20 20 24 27 32 31 32 38 40 40 40 41 47 54 52 52 55 58 61 64 68 72
36 39 42 44 43 40 37 34 31 29 29 26 25 24 23 20 18 22 18 16 16 18 18 19 20 27 32 35 37 37 35 40 41 45 47 52 54 53 52 54 59 60 68 71 72
38 38 38 39 46 45 44 43 40 34 30 28 26 26 24 22 18 18 17 16 16 18 18 22 29 30 34 36 39 43 43 42 45 48 51 55 52 52 56 58 59 60 66 79 78
37 37 38 46 41 47 45 45 44 39 33 30 29 28 27 24 18 16 16 17 19 18 20 25 30 32 35 37 41 49 49 52 50 54 56 55 54 55 59 62 64 67 68 83 87
34 37 37 42 45 44 48 46 44 41 36 32 31 30 28 22 19 17 15 18 22 21 23 27 30 32 35 36 44 47 50 54 60 56 53 53 55 56 59 64 67 69 65 67 67
30 32 36 39 44 47 44 44 43 42 38 34 33 32 28 23 19 17 16 20 24 23 25 28 32 31 34 36 40 46 46 50 55 58 55 54 56 55 63 65 65 69 65 59 61
28 30 32 40 45 48 41 38 41 40 37 34 33 32 28 23 19 15 15 21 25 26 26 31 36 37 35 34 41 44 47 52 53 55 57 62 52 59 68 63 53 57 55 55 47
25 27 29 36 42 47 47 40 40 43 38 38 35 33 27 24 20 15 17 22 25 27 29 36 39 38 36 33 43 47 49 52 54 55 58 58 54 55 59 57 48 54 47 46 46
27 25 26 31 38 44 47 43 40 42 43 37 32 30 27 25 22 16 18 23 25 27 32 40 42 43 33 34 36 46 53 53 53 52 52 51 49 50 56 57 52 53 48 44 39
36 29 26 29 37 44 46 58 42 47 49 36 32 32 29 27 26 19 20 22 23 26 33 40 44 44 44 45 46 47 53 55 51 55 50 46 47 49 53 52 52 47 46 43 43
34 33 31 32 35 44 41 54 52 44 55 46 32 30 26 26 24 20 21 23 24 27 32 37 39 41 43 45 46 47 51 51 51 54 53 45 38 41 41 45 48 50 45 42 37
25 31 34 36 38 39 41 58 51 56 57 42 48 30 23 24 22 18 21 23 24 28 33 34 35 39 43 43 45 47 47 49 50 49 49 45 40 33 38 44 46 47 52 49 47
24 26 30 35 42 38 44 54 56 58 50 34 46 37 27 22 19 19 22 24 24 27 31 31 36 42 44 44 44 44 48 50 51 53 47 44 39 37 34 34 41 46 51 56 55
25 28 26 33 35 37 52 60 59 61 62 35 42 38 31 26 21 20 22 24 24 28 31 30 35 42 42 43 43 48 50 49 50 52 52 48 45 37 33 39 40 39 45 48 53
27 31 27 28 32 41 57 72 73 66 36 38 46 35 29 26 23 23 22 25 26 31 34 31 33 39 42 43 44 45 47 50 51 52 50 47 45 36 35 37 39 41 41 43 46
31 30 31 26 35 44 62 75 76 53 41 44 46 40 29 24 24 23 23 25 25 26 32 33 32 36 40 40 43 45 46 52 48 49 44 45 42 31 33 36 37 38 40 38 41
40 36 32 25 34 47 63 76 59 57 49 43 47 49 39 25 24 24 25 23 23 24 27 35 32 34 42 43 43 48 48 47 54 58 56 42 36 32 33 33 40 39 40 41 30
48 42 37 26 34 47 62 56 61 53 51 50 48 50 42 31 26 26 27 22 23 23 26 31 33 36 43 45 48 48 50 52 54 54 52 43 38 35 35 35 35 36 34 34 33
53 53 39 30 40 48 54 51 52 52 49 54 52 58 50 38 30 28 27 22 22 24 27 30 31 35 41 45 48 52 50 50 49 49 50 49 39 33 34 33 32 34 35 32 30
65 58 49 35 47 45 44 47 50 51 53 52 52 55 53 41 35 29 26 24 22 24 27 31 36 39 35 38 43 47 46 48 56 52 53 51 40 31 31 36 36 36 33 31 29
69 60 62 41 44 41 38 46 47 52 51 55 51 52 60 47 38 34 27 26 25 25 26 32 36 37 33 34 39 41 43 44 48 50 49 54 42 34 32 31 34 32 33 33 32
74 68 76 61 24 28 40 43 48 49 56 62 54 56 61 57 46 39 32 27 28 29 28 31 37 34 32 30 34 40 40 42 43 51 48 46 42 39 38 35 30 27 29 31 32
78 76 62 61 45 30 34 32 44 49 51 56 57 49 63 62 53 44 36 34 35 34 36 37 39 37 34 34 36 36 38 43 46 45 48 41 46 38 37 32 28 24 24 30 34
80 76 54 52 38 36 44 39 41 46 46 50 49 44 57 62 61 56 47 47 42 41 41 42 43 42 41 40 39 40 38 41 46 44 42 41 42 40 33 31 28 28 28 30 35
71 58 59 43 52 49 35 35 42 43 42 50 44 48 56 57 63 59 52 53 50 45 45 46 49 48 46 47 49 50 40 41 43 41 40 39 28 30 27 26 28 28 28 29 28

GFSSW_prec_cthk_066.txt.gz
RH
41 37 35 33 29 27 23 20 19 19 18 18 19 21 23 20 18 17 19 20 17 15 16 17 17 20 22 22 24 28 35 39 37 37 42 51 54 59 61 59 54 59 60 65 67
41 43 44 43 41 37 34 30 25 22 21 20 21 23 23 21 19 18 20 21 18 15 15 18 19 19 24 25 26 28 35 38 39 38 38 42 49 54 56 57 57 57 59 62 65
42 40 36 41 43 43 40 37 35 29 24 23 24 26 24 22 21 22 22 22 18 16 17 18 18 22 26 30 34 31 31 40 40 41 41 44 54 57 54 53 57 61 65 66 68
37 40 41 37 39 42 42 39 38 35 31 29 29 28 26 25 22 24 23 22 18 16 16 17 19 22 27 33 34 36 36 33 39 44 45 49 55 56 55 56 58 57 64 71 74
34 36 38 40 38 40 38 41 41 41 39 36 32 29 28 28 25 20 24 23 17 16 17 17 21 26 30 33 34 39 43 44 41 46 47 51 52 54 58 62 59 56 59 69 77
30 31 35 36 39 38 40 37 42 44 43 40 35 31 32 30 25 21 22 23 18 16 19 21 26 27 32 32 35 45 47 51 50 50 53 51 52 53 60 61 64 61 69 81 80
29 28 29 32 36 38 41 40 42 43 43 41 38 34 33 31 27 22 24 24 20 18 22 23 26 29 33 34 37 43 47 50 53 55 51 47 48 55 55 63 65 68 65 69 72
30 28 27 27 30 33 39 41 36 42 42 42 39 34 34 31 27 22 22 23 23 21 24 24 27 29 32 33 35 41 40 49 54 55 54 51 59 51 59 63 68 75 68 69 66
33 29 29 28 27 30 37 39 36 39 41 38 37 35 33 31 28 23 22 23 24 23 24 25 31 33 33 33 36 40 45 47 50 54 55 56 55 53 60 66 61 67 66 58 62
30 29 27 28 30 31 34 36 35 39 41 37 37 38 32 32 28 24 23 23 25 25 26 29 34 37 34 35 38 40 38 41 50 56 52 57 54 53 55 57 53 57 59 58 48
24 27 27 24 29 33 36 38 40 39 44 38 36 37 35 35 29 25 24 25 25 26 28 31 36 40 37 35 38 41 44 49 50 48 49 53 49 47 51 51 50 53 54 49 46
20 24 26 24 24 34 39 45 43 43 42 43 36 38 40 36 34 29 25 26 25 26 28 33 36 41 39 40 41 43 46 48 48 47 45 47 43 41 45 51 51 47 45 44 44
21 19 23 23 26 29 37 44 42 48 45 47 39 40 33 30 34 33 26 26 24 26 26 33 36 38 42 43 43 45 49 48 46 46 45 43 41 43 45 44 47 44 43 44 44
27 21 20 20 24 30 38 42 48 48 49 40 44 37 42 30 33 30 26 25 24 25 27 31 34 37 40 41 42 45 45 46 44 43 48 40 40 34 36 37 39 39 39 38 40
27 27 24 21 30 33 40 43 51 52 44 36 44 44 42 40 31 28 27 25 23 25 28 30 31 34 39 41 41 45 43 45 46 48 44 42 39 40 32 34 35 40 48 45 44
28 30 29 23 23 28 39 48 53 57 50 35 44 48 44 42 37 29 25 25 25 28 26 32 31 33 39 40 43 44 46 46 47 49 50 44 41 39 38 34 38 38 39 44 51
28 35 33 31 22 33 41 53 61 56 35 34 44 48 40 39 36 27 25 26 24 29 28 29 30 32 38 43 44 45 47 49 51 49 47 40 37 37 32 32 35 39 45 47 46
33 41 38 38 28 33 47 59 58 34 36 41 43 49 45 35 32 30 26 26 25 24 29 31 33 30 31 39 44 46 46 50 46 43 40 38 34 35 27 27 32 38 39 44 43
41 49 40 42 32 37 53 59 38 39 41 40 48 50 50 39 32 30 27 23 22 24 26 30 30 29 32 37 41 49 46 46 50 49 45 38 34 31 28 27 29 30 36 43 44
51 60 47 42 40 45 55 44 36 39 42 47 46 49 53 47 32 29 28 23 25 23 25 28 31 28 34 39 44 47 48 49 48 54 48 40 37 34 32 29 28 29 32 36 41
67 66 52 43 50 57 53 38 35 46 42 44 52 51 47 50 41 31 27 24 22 24 25 29 29 34 34 38 44 47 47 49 51 47 49 46 39 35 33 30 32 31 31 33 32
74 68 54 52 62 59 45 32 38 42 49 47 53 56 60 54 45 36 29 22 22 23 24 28 32 33 32 37 39 47 49 49 49 50 48 49 40 33 33 33 33 32 32 29 30
80 72 72 68 57 53 37 40 37 44 41 49 50 53 59 58 55 44 30 25 25 26 25 29 30 36 35 34 37 37 39 44 46 49 46 52 39 35 36 35 34 31 32 32 31
98 84 83 73 49 32 37 48 47 45 42 46 49 51 62 54 57 57 42 30 26 28 29 29 31 32 33 30 33 33 34 37 41 49 42 40 37 38 39 42 37 33 28 25 26
97 82 61 62 60 35 35 44 45 46 38 44 52 52 56 63 56 58 50 42 33 34 33 33 35 33 31 30 33 30 28 31 33 34 39 37 41 36 38 43 41 39 32 24 24
91 81 67 63 49 41 29 40 52 42 39 38 43 48 50 66 60 60 58 49 44 40 39 36 39 36 35 33 33 34 30 32 34 37 39 40 35 34 34 40 38 35 32 30 29
87 83 79 59 57 56 40 29 41 46 42 39 40 44 48 58 76 70 68 60 53 47 45 42 42 42 38 39 41 44 33 34 36 36 37 39 36 35 27 26 27 30 30 30 31

GFSSW_prec_cthk_069.txt.gz
RH
41 42 41 38 34 32 29 28 27 25 23 21 20 19 19 19 21 21 23 24 19 17 17 17 16 17 19 19 19 22 31 36 38 32 47 42 43 57 49 57 62 60 62 67 67
37 39 39 41 41 41 39 36 34 32 30 27 24 22 21 22 23 23 23 22 20 18 18 18 18 20 24 27 26 24 37 41 36 36 36 36 39 57 47 60 57 65 60 60 64
31 32 37 40 38 35 39 39 38 36 35 33 29 25 24 26 28 27 23 24 21 19 20 18 19 20 25 31 34 40 36 38 39 39 40 38 46 57 55 55 61 58 66 62 70
26 26 29 32 34 36 37 37 38 38 37 35 33 31 29 30 30 30 25 24 22 19 20 17 18 19 25 34 39 32 44 42 39 38 40 46 54 51 54 61 53 56 53 58 66
31 30 29 31 31 32 33 35 35 36 38 38 37 37 33 35 32 29 26 25 23 20 19 17 18 21 30 35 34 37 48 40 37 34 36 41 50 48 61 58 57 53 52 61 69
32 31 31 32 31 31 31 34 35 33 35 40 41 41 39 36 32 29 24 27 25 21 19 18 23 28 29 32 33 52 41 45 38 39 43 42 55 47 74 56 55 54 55 60 62
36 31 30 30 30 30 30 32 34 31 34 37 44 44 41 34 33 32 26 29 26 22 21 21 23 26 34 34 34 36 36 68 63 56 55 37 46 54 63 48 59 60 57 67 61
34 34 31 29 29 29 29 31 30 30 32 34 37 43 44 34 33 30 28 30 27 24 21 23 24 26 30 34 33 36 47 47 56 48 49 39 75 82 58 50 59 65 66 70 62
22 25 27 26 26 27 28 30 32 33 33 31 33 41 39 35 31 31 28 29 29 25 22 22 24 30 37 32 41 45 40 46 45 52 50 48 53 64 56 56 59 61 74 63 66
20 20 21 23 21 22 25 27 31 30 34 35 35 41 33 33 34 34 30 28 31 28 25 23 27 35 40 42 45 44 43 41 38 53 49 51 54 59 56 59 58 52 62 61 58
21 18 18 21 19 18 21 29 42 51 51 38 39 34 36 37 35 34 33 29 31 30 26 26 31 39 47 46 38 38 41 43 47 47 42 54 53 52 51 54 49 52 58 53 47
24 21 18 18 16 15 22 29 42 42 38 42 37 35 39 39 40 36 37 31 31 29 28 35 34 40 41 32 34 36 45 47 47 43 39 49 46 44 44 43 46 47 43 41 43
21 26 22 20 16 10 22 31 36 35 43 36 36 32 33 35 41 41 37 34 33 30 29 31 39 39 36 36 38 44 47 51 46 47 44 42 44 44 36 44 48 50 42 37 36
19 24 26 25 15 19 22 30 32 39 40 31 43 36 38 36 36 38 36 33 35 31 30 29 35 35 34 38 44 46 47 41 41 42 63 42 50 45 43 36 42 43 42 40 40
21 24 30 26 32 29 39 29 32 39 31 31 39 41 39 38 32 32 34 32 35 30 29 27 28 35 32 37 42 43 43 39 40 42 44 44 34 45 38 37 45 40 47 47 41
22 24 32 29 27 29 39 31 37 39 35 32 39 40 43 41 35 37 34 34 33 33 28 27 31 32 31 38 40 42 42 42 42 45 51 46 37 43 45 36 43 46 43 48 53
29 25 33 35 28 34 39 43 43 34 24 27 40 44 44 44 43 41 39 40 33 35 31 27 31 30 33 35 39 41 47 56 53 54 49 45 35 34 41 36 34 36 45 44 48
40 34 32 35 31 40 54 56 40 19 24 35 40 48 45 43 43 47 41 44 34 31 32 30 33 29 31 33 42 40 46 57 58 56 49 38 30 37 33 28 29 31 35 40 43
60 48 40 41 36 45 62 73 24 18 24 26 40 52 47 45 44 45 45 43 30 29 27 29 32 34 35 31 39 47 45 48 56 50 48 41 38 34 29 27 29 27 31 39 42
74 66 49 53 45 53 72 61 30 19 21 34 33 46 49 46 45 44 40 38 32 30 27 33 37 34 37 35 34 42 49 50 45 54 59 41 38 37 38 36 29 30 30 32 36
88 75 61 68 62 69 66 44 40 31 29 39 42 38 52 53 45 49 45 36 31 30 29 32 33 42 38 33 36 36 44 47 49 53 57 51 40 44 37 35 35 37 33 34 37
98 85 76 79 73 70 53 34 40 39 41 49 56 49 47 57 51 45 54 41 32 29 30 29 33 42 40 35 33 48 43 46 52 50 49 50 48 46 41 39 37 34 35 36 35
97 94 87 78 68 62 35 30 41 48 43 56 58 46 53 61 57 46 51 46 39 30 31 32 37 41 42 37 38 37 43 53 53 51 53 66 50 45 41 34 37 36 35 35 31
99 96 93 82 61 48 36 33 39 36 54 52 61 56 52 50 58 58 55 55 43 32 31 34 33 35 36 36 40 35 35 41 49 55 45 43 44 42 44 47 49 48 48 35 32
97 81 75 78 69 54 53 44 39 33 39 57 69 62 58 57 50 63 65 64 56 35 38 39 38 38 32 38 42 38 36 36 38 40 43 43 45 39 44 47 44 53 52 41 32
94 76 76 76 75 64 57 49 45 34 30 41 60 59 62 63 64 69 71 69 60 52 38 40 44 40 38 37 43 40 32 31 31 33 32 32 36 41 44 42 39 38 41 39 36
87 81 79 78 80 80 54 44 39 41 36 38 49 63 63 66 75 71 69 75 70 69 48 46 47 46 43 41 41 45 31 34 34 34 36 38 43 45 46 44 41 35 38 31 31

GFSSW_prec_cthk_072.txt.gz
RH
29 31 32 34 35 37 36 32 31 29 28 28 26 25 22 21 20 20 23 27 24 20 19 19 16 16 17 20 22 19 29 39 43 41 38 39 41 31 39 41 50 62 64 68 60
30 30 30 31 32 31 31 30 32 34 33 31 29 28 26 23 22 21 27 24 23 21 19 21 20 19 24 32 29 26 31 41 43 35 33 33 28 28 43 57 78 73 74 65 63
27 28 29 30 30 30 30 31 30 30 33 31 30 30 29 26 26 30 27 24 24 22 21 22 20 20 23 33 39 37 36 38 34 38 37 34 35 41 54 56 59 64 70 54 52
31 29 26 26 25 26 27 27 29 29 30 30 31 32 31 31 33 32 29 27 26 23 21 21 18 18 21 33 42 41 30 37 40 34 34 32 47 49 45 70 48 51 55 48 54
36 34 33 32 31 29 29 30 30 29 29 31 31 33 31 35 35 34 32 29 27 24 22 22 19 19 22 33 41 38 40 45 37 34 30 30 36 39 44 71 49 43 49 53 55
40 37 34 33 33 32 31 31 31 30 29 30 32 32 36 38 36 36 33 29 28 25 24 22 18 21 26 30 35 37 42 36 49 52 44 51 44 48 70 59 58 52 48 48 52
30 32 35 35 32 31 32 32 32 30 29 30 31 34 36 35 32 38 36 32 30 29 26 23 19 25 29 34 36 35 26 49 52 52 34 54 50 54 58 81 66 60 61 57 51
23 21 20 22 27 31 31 30 32 30 31 31 33 33 33 31 34 37 37 34 32 30 26 28 24 23 25 30 28 32 40 47 44 48 47 58 54 60 54 58 73 58 64 60 50
20 20 21 18 16 17 24 26 28 29 29 32 32 37 36 33 33 32 34 34 34 32 28 26 22 24 28 33 38 41 42 46 50 44 48 51 48 50 71 81 73 63 59 53 48
18 18 18 19 18 13 12 16 20 28 37 36 36 39 36 31 34 36 32 33 36 34 31 27 23 24 30 37 44 52 44 48 43 49 46 48 50 63 63 72 58 58 55 53 51
17 18 18 17 18 14 8 9 24 44 51 46 40 39 33 37 36 35 36 33 36 37 34 29 26 26 34 47 44 40 39 41 43 48 43 39 46 47 49 48 42 49 60 55 50
13 17 17 17 16 15 9 16 20 37 32 29 34 32 35 38 40 36 37 34 35 37 35 35 29 26 37 45 34 32 33 36 42 45 38 42 49 48 37 34 31 37 40 45 41
11 13 16 18 16 11 10 10 27 32 33 23 24 26 32 31 38 38 38 36 35 38 36 35 29 36 35 39 32 32 38 45 50 47 46 43 48 45 43 44 41 39 38 37 37
12 13 15 20 18 21 14 16 26 27 31 16 18 25 31 32 30 35 40 40 38 37 35 36 29 40 39 33 38 40 45 47 40 42 50 41 48 48 46 48 44 52 43 35 34
16 13 16 21 22 25 43 38 40 36 25 12 19 27 30 31 30 32 37 43 42 37 37 32 31 32 36 29 35 37 38 43 39 40 43 54 51 44 46 47 52 54 49 45 42
21 18 17 20 24 19 38 47 39 48 25 14 22 26 29 32 34 34 36 39 39 39 40 34 32 29 32 33 31 35 38 38 37 40 46 48 42 48 51 43 41 50 50 47 49
30 27 21 23 29 41 48 56 58 47 14 13 23 28 29 33 36 37 38 40 40 39 39 37 31 32 33 32 36 35 40 46 57 52 51 50 49 37 42 38 37 41 48 46 46
43 41 31 27 33 43 49 71 69 21 20 21 20 31 30 35 39 38 40 39 41 39 42 42 35 26 32 31 34 36 40 52 85 66 53 54 36 26 37 33 28 27 31 42 44
60 56 49 39 36 49 61 70 52 22 18 22 39 36 42 36 39 44 40 41 42 41 42 44 32 27 33 31 35 43 39 38 57 62 61 47 47 34 39 34 29 29 35 40 40
76 72 64 61 46 59 69 60 38 27 26 40 38 40 49 45 39 45 45 42 44 47 44 45 42 33 33 36 29 41 51 46 47 58 60 40 40 49 46 41 40 31 34 32 34
94 84 73 79 70 71 62 43 27 22 34 54 48 42 34 56 47 40 44 48 52 52 51 42 45 40 40 35 34 31 41 50 46 45 50 55 52 50 46 42 42 37 36 36 35
99 89 85 92 87 65 51 41 27 25 28 54 55 52 48 47 66 46 46 47 52 54 56 43 46 47 46 35 35 37 35 40 49 47 58 59 56 43 44 44 43 42 35 35 36
97 95 94 93 79 70 60 52 53 43 37 49 50 57 65 64 55 58 53 52 61 55 53 47 44 52 53 46 43 32 36 43 39 39 46 63 50 41 41 39 34 38 34 34 34
98 96 94 91 73 75 74 64 60 46 41 36 55 63 77 69 66 66 60 53 57 57 54 53 48 45 51 51 40 39 35 48 53 55 51 45 47 46 47 43 42 39 46 55 49
95 79 74 77 76 75 75 68 58 48 34 36 54 56 78 85 62 67 72 66 56 59 54 57 59 51 49 44 47 41 38 36 41 45 50 52 47 41 44 41 43 46 54 45 54
90 76 73 73 77 88 80 69 57 50 44 27 41 53 68 87 87 69 61 68 59 59 57 56 61 56 55 47 45 47 48 41 35 35 39 41 42 40 41 39 45 45 43 43 42
83 77 82 75 81 75 62 71 65 57 47 39 26 28 59 71 82 87 82 71 62 61 64 59 57 50 53 52 49 47 47 43 39 41 40 40 37 35 46 44 41 42 40 37 37

GFSSW_prec_cthk_075.txt.gz
RH
26 26 24 24 24 24 24 24 24 24 23 25 25 25 24 23 21 21 20 20 23 24 21 20 18 16 17 18 18 21 28 30 36 41 37 37 36 33 33 36 56 70 65 71 66
29 27 27 28 27 26 27 27 27 27 26 25 26 26 25 24 23 23 25 25 24 25 22 21 21 22 19 24 24 25 29 31 35 36 34 33 34 38 44 45 57 60 54 54 65
31 30 30 29 29 28 29 29 29 27 26 26 25 24 24 25 25 29 30 27 26 25 23 24 23 22 20 26 29 33 32 30 32 34 33 29 29 41 50 52 53 60 58 51 61
41 36 34 32 30 27 26 25 24 24 24 24 24 25 25 26 30 32 32 32 29 27 24 24 22 20 19 27 31 36 40 36 29 34 36 32 25 31 42 51 63 73 51 47 50
46 44 41 37 36 33 31 29 29 28 28 28 27 26 27 30 30 26 33 35 32 28 26 23 23 21 18 23 27 35 43 37 35 38 42 43 34 34 36 49 64 79 73 44 43
37 41 40 40 39 37 34 33 31 31 30 30 29 29 31 36 28 31 35 35 35 30 28 23 23 21 20 23 26 33 34 29 35 41 44 40 34 36 47 62 71 91 69 57 47
31 37 33 28 29 32 37 36 33 30 30 30 30 34 35 32 26 29 34 35 36 33 29 24 23 23 21 24 24 30 31 35 39 48 47 37 46 50 59 62 71 76 70 54 44
38 38 29 34 23 14 16 23 32 32 32 30 32 34 35 32 28 27 31 33 36 36 32 29 27 25 21 22 24 35 35 37 39 44 48 40 49 49 64 60 61 88 67 57 45
23 21 23 21 19 20 10 10 11 17 25 32 35 35 37 36 34 32 31 35 35 33 34 32 29 27 22 24 31 39 43 45 44 46 48 44 51 57 58 57 59 58 67 54 48
15 24 24 19 17 14 9 7 7 9 14 31 39 40 34 33 34 34 34 33 35 35 36 34 29 27 22 29 41 39 44 44 47 46 52 48 50 44 47 52 55 57 61 51 53
10 13 16 24 20 16 9 6 12 24 34 28 27 25 26 32 35 36 36 34 34 35 40 36 35 28 21 27 39 41 45 43 41 47 52 46 44 45 45 48 53 53 58 52 51
9 9 11 13 15 15 16 8 16 34 31 23 20 27 24 24 34 37 36 36 34 36 40 41 37 23 23 34 38 44 40 35 38 49 45 43 41 41 47 46 43 42 53 41 39
16 14 12 13 14 15 13 10 12 29 34 21 11 11 11 20 23 31 37 37 36 36 39 41 35 28 30 34 38 42 36 34 37 44 45 45 43 44 43 46 47 43 44 45 37
14 16 13 13 15 21 25 24 24 32 36 17 10 10 11 14 22 26 34 38 36 35 38 40 36 37 35 37 38 37 38 42 41 43 42 45 51 47 50 48 45 48 47 45 41
10 16 17 14 16 17 37 32 38 35 33 6 11 14 15 16 18 24 29 38 39 38 40 36 37 37 37 39 38 32 41 41 41 44 37 43 57 51 45 50 46 49 50 48 48
14 15 20 18 15 16 34 49 50 46 46 10 12 15 16 16 20 24 26 33 38 42 39 38 35 36 35 34 33 30 37 38 38 40 45 43 60 48 45 42 42 37 44 45 46
21 20 27 26 17 31 38 50 63 61 13 8 19 22 20 18 18 23 31 33 38 43 42 39 37 37 36 33 33 35 35 48 57 52 53 49 55 44 43 38 37 41 39 41 44
29 29 33 34 24 38 46 53 65 24 22 13 20 29 28 23 21 24 29 33 37 42 44 45 43 38 34 30 32 34 37 55 61 65 63 54 47 38 35 36 40 42 42 42 43
39 43 43 42 40 41 53 63 44 26 21 17 29 47 44 36 33 31 28 33 34 41 44 44 40 39 37 33 33 35 40 37 59 60 74 61 49 46 45 41 39 37 31 37 39
52 56 53 58 59 52 58 40 31 20 16 26 44 58 51 65 55 47 44 29 34 38 43 42 48 43 39 35 35 33 39 51 55 70 77 57 51 54 45 43 41 36 36 32 38
82 82 69 79 81 70 53 48 37 30 27 27 44 55 64 58 72 72 46 37 37 40 44 44 49 50 47 39 34 37 40 47 53 60 63 59 53 40 47 46 41 41 39 36 34
99 88 84 94 92 71 54 55 40 38 34 30 38 48 63 64 70 71 69 51 45 43 44 47 53 60 52 49 34 37 37 49 62 59 58 58 50 40 46 45 42 43 42 41 39
97 92 91 93 85 74 70 65 58 53 39 34 31 48 59 65 77 80 74 60 53 49 50 55 62 74 60 50 43 40 42 36 42 60 54 70 59 47 51 48 47 40 41 44 40
98 94 92 89 80 81 82 73 68 58 49 39 30 42 59 68 78 83 92 74 63 56 52 60 72 71 63 57 53 50 40 39 38 50 45 48 50 54 53 50 44 43 43 39 40
95 84 83 80 81 81 76 68 70 71 62 50 38 34 54 71 84 84 90 87 76 60 63 59 67 67 59 51 56 50 46 41 38 35 53 45 44 45 45 42 45 44 40 42 47
91 84 83 78 79 80 76 75 71 69 63 57 44 26 44 64 77 80 86 93 82 63 61 56 63 66 64 56 50 60 55 45 39 39 46 47 54 51 47 45 45 46 46 42 42
91 89 89 78 79 74 69 69 71 73 67 62 45 30 39 44 67 79 88 97 96 91 70 63 67 67 68 60 57 59 56 51 48 44 40 39 39 38 39 41 39 44 46 41 39

GFSSW_prec_cthk_078.txt.gz
RH
25 24 24 24 23 21 20 20 20 19 19 19 18 18 18 19 20 19 20 21 23 26 24 22 21 20 17 18 20 22 26 28 32 31 35 40 36 39 42 47 48 50 51 58 43
30 29 27 26 26 24 24 24 23 22 21 23 23 23 22 21 21 21 24 24 24 27 27 23 24 24 20 21 23 24 25 27 29 30 33 37 37 42 48 45 44 50 50 61 45
39 36 32 31 30 28 27 27 29 29 28 27 26 24 23 22 21 25 26 27 25 29 27 24 25 25 21 20 24 26 27 27 27 32 33 39 43 45 45 46 45 47 55 60 48
45 43 43 41 36 32 29 28 27 27 27 25 22 22 23 23 23 30 30 30 29 31 30 25 26 26 20 20 25 25 27 33 32 36 35 36 46 46 48 45 46 52 61 64 45
46 42 44 43 43 41 39 36 33 30 27 26 25 26 26 29 29 26 28 28 31 34 32 28 26 25 21 21 24 25 29 29 33 37 40 41 48 53 57 60 60 60 63 60 47
56 55 48 38 37 37 39 41 39 35 32 29 28 28 31 38 29 28 27 31 32 34 34 31 24 25 24 18 20 21 26 26 34 37 40 41 53 51 58 66 62 60 63 54 46
26 41 49 44 33 29 26 29 33 36 35 32 30 31 33 32 28 31 33 33 33 36 36 30 25 30 26 19 19 22 27 29 34 41 40 46 51 55 59 60 58 55 68 50 47
22 21 26 39 40 29 31 20 18 21 26 28 32 35 34 32 29 29 29 32 34 35 35 30 31 32 29 20 19 26 29 35 37 40 43 43 49 55 54 57 58 52 50 55 52
22 21 19 24 24 25 21 19 23 16 11 14 22 33 34 34 34 34 31 31 34 34 36 33 35 35 28 24 24 28 36 39 40 40 43 47 49 47 53 50 50 46 45 47 53
25 22 18 13 21 30 16 11 7 10 15 12 24 30 20 28 35 34 35 33 34 35 36 36 36 36 30 27 30 30 43 39 39 40 42 53 47 51 54 48 45 46 47 47 49
13 13 21 24 16 13 16 25 20 21 28 24 27 23 15 18 26 33 35 36 35 35 37 38 36 39 26 24 29 36 42 40 37 38 43 46 46 48 57 53 45 40 35 39 45
10 14 9 7 8 10 14 12 27 43 41 21 17 22 14 15 26 23 34 37 36 37 38 40 37 35 25 25 23 39 42 38 35 37 41 42 43 45 53 52 44 42 38 34 33
8 9 16 14 13 10 18 17 21 33 38 23 17 13 8 10 17 16 26 35 36 37 37 40 39 37 30 27 34 39 39 39 39 39 41 38 41 38 44 49 46 44 37 38 35
9 10 17 14 8 15 22 23 33 36 31 18 13 11 9 12 15 6 15 28 33 35 37 38 39 40 38 36 39 39 36 45 44 43 45 39 43 41 39 46 49 47 47 43 43
16 13 15 18 10 10 19 24 34 39 16 8 10 9 14 11 9 9 10 20 29 34 36 34 39 40 40 38 38 34 40 45 43 41 39 39 40 41 43 46 49 50 48 48 46
18 17 16 17 12 11 15 29 46 42 40 11 12 15 17 17 14 15 17 17 25 33 35 35 38 40 37 37 38 35 40 43 45 42 46 38 39 44 43 38 43 42 38 44 48
19 20 22 21 14 16 20 35 63 54 16 11 20 28 25 19 17 18 21 19 28 35 34 34 36 37 39 39 38 38 45 48 53 55 49 45 46 42 37 36 40 42 37 43 46
26 28 27 25 20 22 25 44 62 28 27 18 21 30 29 32 25 23 24 22 24 31 35 38 45 39 37 38 41 37 42 52 53 56 53 46 45 39 33 32 36 38 40 39 46
31 31 31 24 27 31 37 51 39 30 32 26 30 30 32 42 44 35 30 25 22 28 34 41 38 37 38 39 42 39 44 40 51 53 60 55 52 44 39 36 37 38 43 45 42
42 41 36 35 45 45 48 36 30 26 22 23 31 34 42 49 55 56 49 33 28 26 34 36 41 39 41 40 43 42 37 48 53 67 64 55 57 51 41 41 38 36 40 44 39
56 53 37 48 58 59 48 37 30 26 30 30 26 28 36 56 59 72 56 46 41 34 37 40 44 44 43 45 46 47 40 47 49 56 62 57 55 50 45 42 39 37 42 40 42
66 58 51 57 71 60 46 38 37 38 39 36 33 26 28 44 62 73 64 52 64 68 50 39 49 52 46 45 45 42 36 39 56 55 55 60 46 44 41 37 37 39 39 36 34
69 61 65 78 80 67 65 61 58 53 47 50 45 33 26 50 59 64 72 66 76 81 54 48 55 60 49 50 47 48 42 39 46 49 59 71 53 42 41 40 41 45 40 38 38
72 80 91 89 77 76 82 80 75 69 62 61 54 42 39 40 50 63 69 73 81 79 69 66 59 49 47 43 53 55 48 41 50 54 53 61 53 48 46 46 51 49 43 44 44
89 87 87 85 79 79 81 79 79 77 76 74 62 55 46 47 47 54 64 74 80 89 77 71 63 54 50 53 59 60 58 48 50 50 49 39 49 45 43 48 50 47 46 45 43
92 89 89 84 86 87 81 78 78 79 78 68 68 66 53 43 43 50 68 80 91 96 87 74 68 66 65 60 63 72 65 60 54 50 51 45 43 36 37 42 47 48 42 38 38
92 88 88 83 87 84 77 77 78 78 71 68 70 72 62 45 42 44 60 78 90 97 98 95 77 71 64 63 71 83 64 62 58 54 53 47 40 41 50 50 47 45 40 36 37

GFSSW_prec_cthk_081.txt.gz
RH
32 29 28 25 23 21 20 20 18 17 17 17 17 17 16 16 17 18 19 21 21 22 25 23 24 23 21 20 21 21 22 29 33 32 29 32 34 36 40 45 43 41 41 46 58
42 37 33 32 29 24 23 23 23 21 19 18 17 18 18 20 22 22 21 22 22 24 26 26 25 25 25 24 23 23 25 28 29 30 28 29 35 39 43 41 42 38 41 48 53
49 46 42 38 36 34 28 25 25 24 23 22 22 24 25 25 23 25 25 24 25 24 25 27 26 27 27 26 24 24 25 27 25 29 28 33 40 41 38 44 48 51 52 59 64
52 50 47 43 40 40 40 32 29 27 26 26 25 28 27 25 23 30 28 29 29 27 27 29 27 29 28 26 24 23 24 25 26 29 34 41 43 43 41 42 46 52 61 70 71
50 53 52 45 42 40 40 40 38 33 28 27 25 25 25 26 30 25 26 29 29 29 30 31 30 28 28 25 25 22 20 23 27 33 39 41 41 39 43 48 54 60 66 70 70
34 36 42 53 46 39 37 37 38 36 35 32 29 28 28 35 31 31 29 27 27 29 31 32 32 27 28 28 25 23 22 23 27 37 40 44 45 43 41 48 55 54 58 55 52
29 27 28 33 45 45 44 35 34 33 31 31 32 31 33 35 29 30 31 33 30 31 33 34 32 32 31 29 24 22 20 25 27 37 44 42 42 41 41 51 52 49 47 51 49
32 25 22 23 22 33 38 38 33 29 25 24 25 27 31 36 33 32 30 32 35 35 34 34 33 34 33 32 25 22 22 30 32 42 47 43 40 38 40 45 47 47 43 44 45
33 28 23 23 21 18 26 28 31 32 28 25 20 20 24 25 31 36 37 36 34 36 34 33 35 38 37 36 31 23 26 32 37 41 45 47 42 36 40 42 49 48 43 42 42
27 29 29 29 19 17 15 24 24 22 21 23 30 29 14 16 22 34 38 39 34 35 37 34 36 39 38 40 36 27 26 37 38 40 43 48 43 41 42 43 48 48 38 37 36
22 20 24 20 24 20 18 11 24 37 39 25 29 23 13 18 19 25 34 40 37 35 38 37 40 38 40 35 28 32 29 35 37 37 39 45 43 42 40 45 45 48 37 30 29
24 19 11 17 17 12 21 31 36 35 38 31 28 23 12 11 22 16 24 31 39 39 39 41 39 40 40 35 31 34 32 35 39 37 36 43 44 42 41 42 41 40 42 35 28
15 17 12 19 8 16 22 26 25 34 34 21 11 21 16 16 15 8 17 23 30 37 39 40 40 38 39 38 34 30 29 36 38 39 37 45 43 41 38 41 43 40 41 39 38
13 12 16 11 11 14 28 27 31 37 36 22 15 11 11 22 24 8 10 17 26 30 38 38 38 40 42 39 34 34 31 36 37 41 43 44 49 41 37 40 44 45 45 43 38
14 13 15 11 15 10 9 19 32 34 17 10 12 14 17 14 11 12 8 11 20 24 31 32 38 37 45 41 36 35 41 40 40 41 41 42 48 37 38 43 43 44 44 44 42
21 20 20 14 12 11 9 13 39 39 35 13 20 22 22 22 17 17 17 11 11 20 27 29 35 38 37 39 42 42 46 43 42 41 45 43 48 34 36 33 37 34 39 40 41
19 19 24 18 15 15 13 25 45 47 16 16 27 25 21 22 23 19 20 19 19 22 29 30 32 35 40 42 43 46 48 54 51 50 44 45 46 38 37 33 30 31 34 35 38
25 32 29 22 21 20 18 31 51 29 29 23 26 29 27 29 29 29 23 27 23 24 27 32 35 35 35 38 40 47 49 57 49 52 44 44 48 36 36 31 24 26 31 34 37
29 36 32 22 28 30 27 40 26 28 33 28 25 32 38 36 34 35 37 30 26 26 32 36 34 31 35 40 42 45 51 43 46 51 54 47 41 33 37 33 31 29 35 37 37
36 40 33 28 36 39 36 27 24 25 33 30 31 28 38 38 40 41 45 41 37 38 30 34 38 32 34 40 40 44 48 56 59 61 60 50 42 44 45 40 35 36 35 34 39
45 49 40 36 43 48 42 34 27 23 23 28 24 21 23 30 30 47 48 50 53 46 46 38 39 39 39 40 42 45 49 51 52 57 55 56 45 37 47 43 38 36 37 36 43
56 56 53 48 54 49 49 36 28 26 25 26 26 28 29 27 34 37 53 48 55 57 61 64 48 43 34 43 45 44 46 48 58 58 55 51 42 33 46 48 43 37 36 39 39
60 60 61 56 56 51 50 40 37 34 34 38 37 36 34 32 37 38 39 50 55 61 79 79 65 54 43 42 43 51 52 52 55 58 55 55 43 35 47 45 40 36 33 37 39
68 68 66 69 48 43 50 53 57 47 44 46 52 50 49 48 42 42 45 61 65 67 72 86 81 70 52 42 46 54 54 55 55 62 53 45 43 36 44 45 43 37 39 39 41
72 64 64 65 63 56 55 55 72 72 70 75 68 61 64 56 48 43 31 39 61 74 79 92 96 70 49 45 54 55 56 56 55 52 52 43 43 34 41 48 43 43 44 46 44
73 69 66 67 61 68 70 76 79 85 83 84 81 82 81 70 59 46 37 39 59 77 80 95 90 84 57 49 53 58 60 60 57 57 51 47 39 38 39 49 46 44 45 48 42
84 76 76 69 72 86 85 81 82 85 84 82 81 83 77 68 63 53 46 42 53 73 90 96 98 95 67 62 67 77 53 52 58 62 60 56 45 42 41 39 37 37 39 43 44

GFSSW_prec_cthk_084.txt.gz
RH
32 31 32 32 30 28 27 24 22 20 18 18 17 17 17 15 16 17 17 17 20 22 22 22 22 24 24 23 24 25 25 24 24 27 26 27 28 27 34 40 44 44 44 47 54
35 34 33 34 35 32 30 29 27 25 22 19 19 19 18 18 17 19 20 22 24 23 23 25 23 25 26 25 26 26 26 23 23 27 27 24 26 30 37 41 45 50 51 56 61
41 39 38 37 36 36 34 33 31 30 28 23 22 21 20 21 20 24 29 27 26 27 26 25 24 29 29 27 29 29 24 23 23 25 27 23 27 34 39 41 44 50 57 61 68
45 45 40 38 40 39 38 36 35 34 33 31 26 24 22 23 27 31 32 30 30 28 27 26 26 29 31 29 28 28 24 21 21 24 28 28 31 37 39 44 51 53 58 64 70
38 37 39 43 42 43 43 38 38 37 36 35 33 28 26 26 29 27 28 29 31 31 31 30 29 30 30 31 29 29 23 20 20 22 29 29 33 38 42 46 51 55 58 61 62
36 36 33 31 33 35 43 40 37 37 37 35 36 35 31 32 30 27 26 26 31 33 31 32 32 30 29 33 30 29 24 20 19 23 28 30 32 39 40 47 50 51 55 51 50
34 33 31 26 25 26 28 41 39 37 34 32 32 33 34 35 31 31 29 27 32 33 31 31 34 33 31 33 31 31 27 20 20 24 30 30 32 43 41 42 47 47 47 46 48
32 28 28 28 24 22 23 23 33 37 35 34 30 31 31 32 32 31 32 32 30 35 36 35 37 36 33 35 36 34 28 24 24 30 33 34 33 36 39 41 45 48 49 48 48
29 31 31 33 35 24 20 20 19 30 31 30 31 31 32 27 30 33 35 39 36 33 40 39 38 38 36 37 40 38 34 23 31 32 35 36 35 32 39 44 44 43 45 45 46
33 23 30 28 30 28 23 22 21 23 29 27 32 35 31 27 23 32 37 38 41 37 42 40 39 41 40 42 45 43 34 26 31 37 37 35 35 33 40 40 41 42 43 41 40
23 27 28 27 25 28 32 34 23 25 28 30 31 25 22 23 27 26 30 36 40 40 44 43 42 43 42 44 42 38 34 30 26 35 36 33 33 32 40 43 43 42 40 38 36
28 29 23 22 18 23 33 30 43 43 39 22 21 32 25 23 30 27 22 27 31 39 40 43 43 40 42 44 44 41 36 34 28 32 37 32 30 32 37 40 42 39 39 37 34
35 25 27 31 27 22 13 32 44 40 44 28 21 19 22 22 27 16 15 19 22 29 36 40 41 39 42 47 46 44 40 35 32 38 37 35 30 31 33 40 40 39 36 36 38
38 24 19 19 26 24 15 31 29 53 48 24 21 17 18 27 26 18 16 16 20 24 28 35 36 41 44 45 45 45 39 32 32 42 46 37 39 31 30 33 38 39 40 38 40
37 27 25 27 20 15 13 13 34 43 34 19 23 23 22 22 13 21 25 20 18 17 22 30 31 38 43 45 46 43 41 37 42 48 47 38 45 27 30 34 35 43 44 40 39
31 38 28 23 15 14 12 14 37 44 41 18 26 25 25 24 20 18 22 23 19 20 19 24 27 34 38 42 47 44 42 44 53 53 57 40 41 30 29 33 34 36 39 39 38
23 26 41 29 21 19 16 20 47 54 18 24 27 23 24 26 26 25 23 24 20 23 24 23 21 27 36 41 44 45 47 60 63 65 58 40 41 27 26 31 38 34 31 31 33
25 26 33 29 24 30 22 34 54 28 33 29 30 27 26 25 31 33 28 27 25 23 21 18 19 19 29 37 45 46 47 64 65 65 56 51 46 30 26 29 36 33 29 31 32
31 35 34 27 28 28 30 48 35 31 33 28 20 31 32 29 29 32 41 40 39 32 35 35 30 20 23 30 40 46 50 47 59 65 67 56 42 26 25 24 32 32 33 35 34
38 41 35 31 37 44 41 32 23 27 34 28 24 25 32 34 28 27 42 48 48 43 41 36 40 31 32 29 36 40 46 55 66 68 70 60 53 35 28 26 29 33 37 35 38
51 53 39 35 37 46 48 40 33 25 25 29 32 24 26 27 32 35 27 41 58 50 42 53 40 34 32 35 37 43 44 49 55 61 62 63 55 40 28 32 34 40 40 38 36
58 59 49 51 53 45 46 39 31 26 28 22 22 24 23 22 23 28 38 36 43 52 55 58 66 56 33 31 39 43 45 47 54 61 64 57 46 38 30 41 37 37 40 36 38
62 60 59 63 56 49 49 43 42 34 31 32 31 27 22 23 29 28 31 42 44 51 62 61 75 70 49 34 37 45 47 50 51 55 56 61 51 40 34 39 41 39 44 42 37
68 68 68 69 54 51 49 49 48 45 39 38 39 34 35 38 39 42 40 32 46 41 50 53 62 75 79 67 58 56 47 49 54 59 51 45 47 42 40 40 46 41 43 42 40
73 68 66 61 56 59 53 46 44 49 47 40 38 37 41 46 43 42 40 36 28 36 58 68 66 69 73 76 71 58 55 51 53 49 52 45 47 45 43 38 46 45 43 41 43
67 60 56 62 61 71 63 53 55 49 51 53 56 61 69 62 60 58 57 54 47 52 65 74 73 73 68 65 73 62 50 53 51 52 51 49 48 47 44 39 40 45 52 45 43
56 58 67 55 58 66 53 54 53 50 55 72 82 84 77 72 70 68 67 62 56 52 60 72 91 79 64 73 79 88 44 38 50 52 49 51 50 52 47 42 43 44 48 48 43

GFSSW_prec_cthk_087.txt.gz
RH
37 35 33 32 31 30 29 29 28 27 25 22 22 21 20 17 17 17 17 17 17 18 19 20 21 22 23 24 24 25 27 27 23 22 21 23 26 23 24 34 38 39 42 47 50
38 37 36 34 33 32 32 30 29 28 28 27 24 23 22 21 20 20 22 21 20 22 22 24 23 22 22 23 25 26 27 26 23 21 22 21 26 24 25 35 39 39 43 50 56
38 38 38 37 36 36 34 34 31 30 29 31 29 27 26 24 24 24 28 25 26 26 29 28 25 24 26 26 25 27 26 26 25 20 22 23 26 27 32 34 37 39 44 52 54
37 36 37 37 38 40 40 37 37 34 31 30 31 32 30 28 28 28 31 31 31 33 32 29 26 27 28 28 27 28 28 27 24 20 21 24 28 32 36 35 36 39 45 49 53
38 37 36 35 31 31 35 39 39 37 36 32 33 33 34 33 34 30 27 31 37 38 34 31 28 28 29 29 30 28 28 28 24 18 19 23 28 29 32 36 35 41 45 46 47
30 30 30 30 29 29 29 31 32 33 38 36 33 33 33 36 40 36 32 31 34 36 35 33 32 30 30 30 31 29 30 29 25 19 18 22 26 32 34 35 39 43 42 43 44
23 25 27 27 28 28 27 25 25 25 27 36 33 32 32 36 35 40 35 31 31 31 31 33 33 33 31 31 31 32 33 30 25 21 19 23 31 34 36 38 41 45 47 48 46
23 24 25 28 29 28 28 25 22 21 22 26 33 35 32 33 30 33 35 37 34 34 32 32 35 35 33 33 34 36 36 34 24 24 25 29 34 37 36 41 40 43 46 47 42
23 24 25 26 27 32 30 30 30 25 23 21 24 31 32 36 35 35 37 37 38 38 41 38 39 41 38 37 36 37 38 37 27 27 27 31 31 35 35 41 42 42 41 41 41
27 26 24 27 27 27 27 27 32 36 28 25 26 31 30 31 35 37 39 37 40 43 42 45 45 45 44 40 36 39 42 36 32 28 29 31 29 31 36 40 42 40 41 36 38
30 27 28 26 26 30 28 31 34 36 33 34 28 23 21 25 28 32 41 38 40 40 44 49 47 48 44 43 41 40 40 35 33 29 29 30 29 31 33 38 42 40 40 36 34
28 24 24 26 27 23 26 38 41 40 47 36 29 24 18 27 33 28 30 33 32 36 42 49 49 47 47 44 44 44 42 37 33 33 31 32 28 29 32 35 37 38 39 36 36
24 26 20 22 25 31 30 44 42 37 45 37 33 29 26 22 26 25 26 36 32 29 34 41 45 46 47 46 48 47 45 41 37 35 34 34 30 28 30 34 36 38 34 37 33
26 21 23 19 24 31 36 38 40 49 47 27 36 34 30 30 21 21 18 20 38 28 24 32 32 43 46 44 44 46 44 43 40 40 36 39 37 27 28 28 32 34 35 37 37
27 22 19 22 23 29 25 24 34 54 33 17 27 35 33 30 22 23 30 21 25 26 23 27 24 27 39 49 51 46 44 44 43 41 40 39 41 27 29 29 28 31 37 40 40
28 22 19 18 24 27 24 21 38 57 40 24 34 31 35 34 27 24 27 25 30 27 28 25 23 26 32 38 46 47 48 49 48 46 48 42 43 29 26 28 31 32 36 40 41
23 24 21 21 22 29 31 28 56 54 24 30 29 28 26 32 31 31 28 28 24 26 31 28 24 19 26 37 45 48 53 53 56 54 46 46 50 35 26 28 27 33 36 36 37
27 28 23 21 22 28 38 45 57 33 34 31 31 30 30 24 34 39 31 34 35 28 27 29 27 21 18 23 39 49 52 54 53 56 48 54 50 39 30 25 27 34 34 26 34
39 31 23 23 27 36 36 59 40 37 31 28 25 33 35 28 27 31 40 44 41 41 34 38 26 20 18 15 18 42 53 48 53 62 62 54 47 41 32 24 23 33 34 33 36
40 35 29 32 37 42 44 32 41 48 45 32 26 26 31 34 28 25 38 43 50 42 45 46 42 31 31 26 27 32 43 54 55 52 55 51 52 40 38 30 23 31 33 37 37
46 50 38 37 46 53 48 37 34 35 36 39 38 27 27 30 35 34 33 36 41 45 45 44 54 39 34 36 34 34 39 48 51 52 48 51 48 41 39 36 28 28 34 36 37
57 61 48 52 54 50 51 44 35 31 29 29 27 27 25 23 24 21 26 27 25 43 52 51 57 61 45 39 42 39 41 44 50 48 60 53 43 40 40 41 38 32 34 39 39
65 63 60 69 62 53 51 48 41 32 34 40 36 31 25 20 16 20 22 30 33 32 37 40 58 52 44 36 40 45 50 48 50 51 45 53 46 41 42 43 40 39 36 37 41
72 71 65 67 66 62 58 52 50 43 36 35 41 35 34 31 27 32 34 31 34 34 36 36 45 39 44 61 56 50 50 56 66 53 47 44 43 44 40 42 43 41 42 39 44
75 66 60 65 63 62 59 55 53 50 46 43 43 36 41 43 38 41 39 31 28 35 30 39 56 55 52 51 53 55 48 51 53 52 48 41 42 44 39 40 43 44 45 42 44
69 62 68 64 63 67 75 59 54 52 54 46 44 40 42 45 43 42 50 53 45 46 54 57 61 64 62 57 58 54 44 41 45 49 48 48 44 44 46 44 46 47 48 46 45
67 63 69 68 62 78 65 55 59 59 54 51 45 50 58 63 63 63 60 55 54 54 53 50 54 55 50 53 58 56 43 55 46 40 37 41 42 50 52 47 47 49 49 49 47

GFSSW_prec_cthk_090.txt.gz
RH
37 36 36 35 34 32 31 30 29 30 29 29 28 26 24 22 21 20 19 18 17 17 19 20 20 20 22 25 22 22 26 25 24 24 22 20 19 21 22 25 28 35 36 39 41
35 35 34 34 34 33 33 31 30 30 30 30 30 29 28 27 24 23 24 23 20 20 22 23 23 23 24 24 23 23 27 25 24 24 24 20 19 21 21 26 33 36 39 39 42
38 36 34 33 33 32 33 34 35 33 31 32 33 31 29 31 30 28 29 27 25 24 26 26 26 25 25 24 23 23 27 26 25 25 24 20 19 23 24 29 38 35 37 41 43
34 33 34 33 32 31 29 29 29 31 35 35 37 36 32 30 34 31 32 32 30 29 29 30 31 29 27 26 25 25 27 28 27 26 25 21 20 21 26 31 33 36 37 38 40
26 25 25 26 28 30 30 30 27 26 26 27 33 36 36 36 38 36 34 32 32 33 34 35 35 32 30 28 27 28 28 30 30 26 23 21 19 22 24 27 33 36 37 39 42
22 21 20 20 21 23 26 26 26 25 24 24 24 27 38 39 38 35 37 39 39 36 38 37 37 35 32 30 29 28 29 31 32 29 25 22 18 23 26 30 36 35 39 43 44
23 20 19 18 19 19 20 22 23 24 24 23 22 22 29 40 37 33 36 39 41 41 37 38 38 37 34 33 31 31 31 31 32 30 25 22 18 23 29 31 36 40 40 40 40
27 20 18 16 16 16 17 18 21 22 24 25 23 22 25 27 38 35 31 34 38 41 38 36 39 39 38 35 34 34 33 32 33 29 27 28 24 32 29 32 35 40 38 38 34
28 26 20 18 16 15 17 19 17 21 23 28 29 29 24 22 30 40 37 32 34 39 44 41 36 38 39 37 36 35 33 34 36 32 26 29 26 28 30 33 34 38 38 37 35
24 25 22 18 18 18 20 17 19 22 32 33 40 38 24 20 31 39 43 43 38 34 40 50 46 43 44 38 36 39 40 38 34 33 29 30 28 22 29 31 34 38 39 36 33
24 20 21 16 16 16 17 20 26 32 34 35 35 34 26 26 20 30 36 41 40 36 32 47 52 46 46 47 43 42 40 37 35 37 33 28 26 26 25 30 32 37 38 36 33
26 22 16 14 12 13 14 24 28 33 33 33 33 32 32 32 28 24 34 36 39 41 34 41 44 48 50 49 49 42 42 40 38 38 36 30 27 28 24 27 32 34 38 37 34
27 26 19 14 9 11 16 23 25 27 40 32 41 34 34 37 31 19 25 36 34 35 36 34 38 44 51 54 53 44 46 45 41 41 38 32 29 28 27 24 29 30 34 36 34
25 27 26 16 14 13 19 23 25 24 41 34 38 40 38 39 36 25 21 24 35 34 34 32 30 37 45 50 52 47 46 47 45 43 40 36 31 31 31 25 27 26 30 33 35
31 28 27 19 19 17 16 12 16 35 27 25 36 40 38 41 41 39 38 20 21 33 34 36 27 22 32 44 49 51 46 47 45 45 43 36 32 30 28 26 26 28 28 31 37
34 29 23 23 19 18 13 12 20 38 31 24 40 39 41 37 40 37 38 32 22 28 33 36 37 26 22 35 41 51 55 54 48 48 50 39 34 30 31 26 28 28 31 33 37
36 31 24 23 26 20 17 19 33 26 20 26 36 40 30 38 41 39 36 40 28 26 28 28 28 25 24 35 37 40 49 56 60 57 49 35 38 32 32 27 27 29 33 35 37
34 32 28 24 21 22 24 27 32 17 28 36 36 38 42 31 38 47 35 35 38 31 31 22 32 28 23 24 28 38 46 54 59 53 47 40 43 34 38 35 25 29 36 36 37
36 36 35 25 20 26 32 33 18 23 32 39 36 40 42 29 33 38 50 46 41 36 36 33 21 30 27 24 19 29 42 48 55 52 54 47 46 38 38 36 27 24 32 34 33
43 44 37 29 25 34 41 29 25 35 33 33 35 36 39 29 27 29 42 49 45 39 43 41 38 32 33 34 33 24 32 38 53 58 54 44 44 41 36 37 36 22 29 34 37
56 53 42 30 38 53 47 34 29 29 39 37 48 35 35 34 28 29 34 39 43 44 45 43 45 37 38 35 32 33 39 34 40 48 49 47 41 37 37 39 41 32 30 36 39
58 61 47 45 57 57 48 40 38 32 35 40 42 44 38 34 31 36 27 26 28 27 39 41 52 47 43 41 45 41 35 34 38 44 49 47 44 41 39 42 42 43 35 36 39
67 63 54 64 66 55 50 49 43 37 31 33 33 41 36 29 22 24 22 35 38 30 32 31 48 46 37 41 48 52 51 47 45 43 42 52 52 42 39 40 43 43 43 42 40
69 68 63 65 68 63 55 50 52 46 38 34 31 33 29 29 26 19 27 26 29 32 34 32 34 28 32 44 46 45 48 47 49 57 48 43 45 42 39 40 42 44 47 48 47
74 66 64 65 64 67 72 61 54 58 50 44 41 31 37 43 45 39 28 27 32 38 32 27 31 36 41 33 33 41 41 42 43 46 53 49 49 43 40 36 38 42 48 48 50
73 72 69 64 61 63 76 73 61 56 54 54 45 45 42 53 53 49 45 46 42 43 49 51 48 47 42 34 31 28 25 30 38 40 39 41 40 38 38 37 37 38 43 45 50
72 72 71 69 69 78 70 66 71 66 57 56 55 54 52 50 52 55 60 53 47 48 48 51 53 53 43 43 40 37 28 23 23 27 38 44 40 37 35 32 29 38 41 46 48

GFSSW_prec_cthk_093.txt.gz
RH
36 35 34 33 33 33 32 31 31 30 29 28 28 28 27 27 27 25 26 24 23 17 17 19 20 21 21 22 23 24 22 23 25 24 23 23 24 22 23 23 22 29 35 39 39
37 36 34 32 31 30 30 30 30 30 31 31 30 29 28 28 29 30 29 27 25 22 20 25 24 23 23 23 25 25 22 23 26 25 23 24 25 23 22 23 27 33 44 44 41
31 29 29 30 32 31 29 28 28 28 29 29 32 34 31 31 34 32 31 31 28 26 26 29 27 25 25 25 26 26 23 24 26 25 26 24 25 22 23 22 29 35 32 40 40
27 25 24 23 24 25 26 27 28 27 27 26 26 28 31 34 36 32 34 32 32 30 31 33 31 27 27 27 27 26 24 24 25 25 26 26 23 23 22 22 27 27 31 34 39
28 25 23 22 21 21 21 22 23 23 24 23 24 24 24 30 38 34 34 35 30 34 36 35 35 32 29 30 30 28 27 27 26 27 28 26 25 21 18 21 24 28 32 33 38
33 26 22 21 20 19 18 18 18 19 19 19 22 21 25 28 27 34 35 33 39 40 37 39 40 40 38 35 33 32 30 29 28 28 29 28 26 23 18 22 29 31 32 35 40
30 28 22 21 19 18 17 16 16 16 16 16 17 19 25 24 23 27 36 32 37 39 45 47 46 41 37 37 36 34 32 31 29 30 29 28 26 23 20 22 27 31 35 37 44
23 24 24 20 19 18 16 15 14 14 14 15 17 21 25 23 21 21 28 35 31 37 45 48 50 48 42 40 39 38 35 32 31 32 31 28 27 29 29 28 28 34 35 37 40
20 20 20 19 15 16 16 15 14 14 14 15 20 26 24 25 25 23 25 31 33 30 34 42 47 50 48 43 42 39 35 34 35 36 32 29 29 35 37 30 26 32 35 38 39
27 21 19 17 12 11 12 13 16 19 23 25 26 29 25 21 26 29 34 36 38 39 31 37 45 47 48 46 41 40 37 36 40 39 34 30 27 32 31 32 28 30 36 41 39
27 26 21 17 11 8 7 13 23 27 34 24 22 24 23 24 29 30 30 37 44 42 36 38 38 43 48 48 47 47 41 42 40 38 37 35 31 28 30 30 31 32 33 39 41
28 25 22 17 13 8 9 24 20 21 19 16 14 17 20 26 29 33 35 32 35 41 37 32 36 36 47 52 54 52 47 43 41 40 41 38 33 28 28 25 31 31 36 39 40
28 26 21 17 12 11 19 24 18 20 19 12 15 18 23 29 30 31 31 34 32 37 38 38 34 41 35 45 53 55 52 50 47 44 44 40 35 30 28 28 29 27 26 31 39
30 26 22 16 16 26 25 27 23 20 24 13 22 22 21 27 34 31 32 34 30 34 37 38 36 42 42 38 44 52 55 53 51 47 48 44 37 30 30 32 35 29 27 28 34
31 27 23 21 18 23 35 19 17 29 18 18 22 24 26 29 40 36 36 36 32 31 31 35 39 35 35 31 41 48 54 54 53 50 50 45 41 31 31 30 32 27 25 27 32
31 31 27 26 23 24 27 19 27 33 22 19 22 23 28 32 35 40 39 43 34 25 32 35 43 40 37 31 27 40 49 53 57 55 54 49 43 33 32 37 35 33 24 28 31
37 39 34 35 35 38 27 31 36 25 14 18 27 27 25 32 37 44 37 47 44 38 30 27 40 38 34 39 34 33 47 57 77 75 56 48 44 36 38 32 30 33 27 29 32
47 41 39 36 36 35 33 38 40 15 22 32 31 30 28 31 43 45 51 48 49 42 34 25 28 39 30 37 36 31 39 42 58 67 63 50 42 35 38 39 37 32 28 31 31
53 50 48 42 39 39 43 43 24 20 26 40 37 29 37 34 41 47 48 56 53 45 44 36 24 31 30 32 28 31 39 42 49 59 61 56 45 42 40 42 38 36 35 30 32
58 60 54 52 42 41 46 38 29 31 44 38 35 35 40 49 38 47 53 60 50 43 47 46 44 32 24 26 34 29 35 43 42 60 66 51 47 44 43 42 41 39 33 29 32
66 68 60 50 44 55 49 38 29 36 38 42 31 43 42 59 43 43 54 62 48 46 49 44 44 46 36 33 35 37 33 36 39 43 52 57 49 47 46 45 48 46 46 35 35
73 72 68 63 58 52 52 44 43 39 40 37 33 37 45 46 43 35 39 38 43 35 37 44 48 49 43 45 44 47 43 37 50 47 47 49 49 52 46 43 50 55 51 38 38
80 75 78 75 66 54 51 53 49 48 43 38 41 41 38 38 38 34 42 34 34 37 39 43 47 44 31 37 38 44 46 44 46 54 54 60 58 45 48 46 45 46 46 47 42
87 80 74 80 68 67 64 54 52 50 49 47 47 49 40 39 44 35 40 49 47 44 34 29 33 40 40 53 50 50 45 51 52 53 51 44 41 41 44 43 45 45 45 48 50
83 75 75 80 68 67 71 76 56 64 63 54 49 41 31 26 28 41 36 35 43 46 34 40 37 32 26 25 37 40 43 39 42 52 54 51 50 48 47 44 38 39 43 48 51
78 70 74 76 76 71 64 67 86 71 58 74 54 49 39 29 33 41 40 43 42 48 49 58 45 32 29 26 23 22 21 24 27 31 39 49 47 40 36 35 35 33 34 38 46
74 73 89 87 73 74 77 64 68 80 73 57 79 59 53 48 46 54 54 65 56 55 63 53 52 52 35 29 35 38 24 20 18 18 26 33 36 40 46 41 38 28 28 34 40

GFSSW_prec_cthk_096.txt.gz
RH
39 39 36 34 34 34 33 32 31 31 31 30 30 30 29 27 28 27 27 27 25 24 20 19 19 19 19 20 22 23 25 23 23 26 28 26 24 23 25 24 25 24 28 33 38
31 32 32 31 31 32 32 32 31 30 30 29 28 28 27 29 30 29 29 28 28 26 24 23 25 24 23 21 23 25 25 23 24 28 26 24 24 26 26 25 27 26 30 37 34
30 28 26 25 26 27 26 27 28 29 30 29 28 27 25 24 32 34 32 30 29 29 29 26 29 30 27 24 23 25 24 25 25 26 25 23 23 25 27 24 26 28 31 28 30
31 28 26 25 23 22 21 22 22 23 25 26 26 26 24 22 31 29 29 28 31 31 30 31 31 33 30 27 27 28 25 24 25 26 24 23 23 24 27 24 22 22 25 26 27
33 30 27 26 25 23 21 19 18 18 20 22 22 22 22 25 30 23 30 34 31 31 34 34 33 35 33 31 30 30 27 27 27 26 27 25 24 25 24 23 20 21 25 26 27
32 31 28 26 24 24 22 20 19 17 17 17 17 18 22 27 23 24 25 28 33 34 36 40 38 36 35 35 33 32 31 29 28 29 29 27 26 27 26 25 21 22 26 28 29
27 27 26 24 21 21 20 20 19 18 16 16 15 16 22 22 18 21 22 23 28 30 36 40 42 42 40 39 40 38 35 31 29 29 30 30 27 26 28 26 24 23 26 30 35
23 22 22 21 18 14 14 16 17 17 16 15 15 16 19 15 20 20 20 19 20 29 33 39 45 45 45 43 41 40 37 35 30 32 30 32 28 28 32 26 27 32 30 33 36
18 18 18 18 17 13 9 9 10 13 15 18 18 28 24 20 18 21 21 20 19 24 29 33 40 46 48 48 48 47 43 37 32 33 37 35 31 29 39 34 36 35 32 37 44
19 20 21 18 15 13 9 7 6 13 18 27 26 33 24 17 17 19 20 28 24 20 25 29 30 35 43 51 48 50 47 41 36 33 37 38 33 30 34 39 36 37 35 39 45
19 23 23 21 17 12 10 9 21 28 32 25 30 24 17 17 15 19 23 27 30 25 29 33 32 28 37 45 48 51 49 47 39 39 42 42 40 32 34 32 35 35 34 35 41
22 24 24 19 13 11 10 21 33 27 21 13 10 9 9 12 13 16 20 28 38 35 34 34 26 33 38 41 47 49 50 49 47 41 42 41 37 33 34 31 30 27 32 37 40
22 25 24 20 12 14 25 24 32 26 22 11 7 8 10 14 11 13 18 21 30 37 39 32 28 31 36 38 44 48 51 54 57 52 48 46 45 35 33 33 32 29 33 35 39
18 27 29 23 17 24 30 36 29 25 27 10 15 15 16 20 17 14 16 20 24 31 37 34 35 38 35 43 39 42 49 54 58 62 54 50 48 40 33 32 33 30 29 30 27
25 28 34 30 22 28 36 37 25 27 25 19 30 26 24 19 25 22 19 20 20 31 41 33 35 40 42 41 48 46 42 50 60 62 62 53 51 40 33 33 31 36 36 32 29
40 33 33 34 34 29 29 29 26 34 30 10 25 25 24 23 21 26 26 23 23 26 33 34 35 34 43 44 39 44 47 50 54 58 61 57 57 45 36 34 36 35 33 31 35
49 46 43 46 40 52 48 31 36 32 13 13 31 32 33 33 31 25 29 28 28 33 34 34 39 36 45 49 43 45 47 51 62 68 68 54 56 47 40 39 39 44 36 30 31
61 60 53 51 40 52 50 45 47 20 17 15 43 55 43 32 36 33 32 35 29 33 41 42 36 28 39 40 42 42 47 46 52 66 61 66 60 47 41 41 37 40 37 36 32
75 66 62 54 51 53 54 55 32 24 27 43 44 44 31 38 34 41 36 38 48 49 51 59 48 32 29 40 45 45 54 45 43 54 82 70 63 53 44 46 44 40 38 42 40
76 77 64 66 68 61 61 45 33 32 37 37 43 42 46 47 49 33 51 48 53 58 55 63 68 39 37 32 43 44 53 54 45 56 60 56 70 62 55 49 50 42 42 42 43
81 80 73 66 70 72 52 40 38 35 46 37 41 40 44 59 73 55 44 74 62 58 54 58 57 70 38 29 32 38 38 39 46 48 48 56 61 65 60 56 54 53 49 45 47
79 89 83 87 87 64 52 51 50 53 42 36 37 52 56 68 58 62 54 77 61 51 47 57 49 54 63 44 48 55 35 39 45 50 49 50 50 62 63 61 60 58 56 54 47
84 82 88 97 89 75 65 58 54 59 50 48 43 38 43 58 66 61 55 54 54 59 58 45 42 46 53 56 48 52 52 48 43 41 50 64 54 56 56 57 53 53 51 49 51
93 90 79 91 88 85 90 71 53 56 57 58 49 48 46 49 61 60 53 57 55 51 50 46 38 42 56 64 57 55 62 62 62 68 57 50 49 62 63 57 53 53 51 50 51
87 80 91 97 89 82 75 86 84 70 51 54 43 47 50 64 55 55 52 45 39 52 46 45 40 31 35 52 48 44 44 47 50 54 56 46 50 53 56 55 51 49 51 48 51
83 83 84 78 85 93 78 65 72 78 68 61 63 57 44 53 52 48 45 47 45 42 48 49 57 46 33 27 32 38 39 38 40 43 43 44 41 41 38 38 35 36 44 44 47
85 80 86 76 94 86 85 83 60 72 79 72 74 76 69 63 60 47 57 68 62 61 65 67 61 48 46 35 26 27 20 22 20 21 24 28 27 35 38 35 37 39 37 48 48

GFSSW_prec_cthk_099.txt.gz
RH
30 31 30 30 30 32 32 32 31 31 32 31 30 29 27 27 28 27 27 27 26 26 24 22 19 19 20 20 19 22 26 23 22 24 26 26 30 27 25 23 24 25 25 25 30
31 30 28 27 27 27 28 27 28 26 27 28 29 29 28 27 27 28 29 30 28 27 27 25 23 22 23 22 22 23 25 21 22 24 26 26 25 25 26 25 25 26 29 28 35
32 30 28 27 26 26 25 24 24 24 24 24 24 25 25 24 26 31 31 31 29 28 28 28 26 29 28 27 23 23 24 22 22 24 27 27 24 22 24 24 26 26 27 28 29
32 31 30 29 27 26 25 24 22 21 21 23 24 24 23 21 27 34 28 28 29 29 29 31 30 30 31 32 27 26 24 24 24 24 25 25 25 25 23 23 26 26 25 25 25
28 27 26 27 26 26 25 25 24 23 21 20 19 18 19 22 27 20 21 25 28 30 31 32 32 34 32 34 33 29 27 27 27 26 26 26 26 27 24 25 26 26 22 23 24
24 23 22 22 22 21 21 21 23 23 22 20 18 18 19 24 19 22 24 27 25 26 31 35 37 36 34 35 34 31 30 29 30 30 26 27 27 29 24 27 27 25 25 24 27
22 22 21 20 20 19 16 16 16 18 19 20 19 18 21 18 15 17 20 23 23 23 28 33 37 38 37 36 34 34 32 31 30 29 30 31 28 26 27 29 28 27 27 30 30
16 16 17 17 17 18 16 13 12 12 13 15 19 22 23 17 17 16 16 18 21 19 23 30 34 35 36 37 36 37 34 32 31 34 32 38 32 28 29 30 28 27 28 31 33
10 11 11 12 12 12 12 9 7 9 9 11 17 24 23 19 20 17 19 19 19 19 18 25 30 34 35 39 42 42 39 36 32 37 36 38 36 32 31 32 29 29 32 35 36
13 10 10 12 12 10 7 4 5 11 12 17 20 26 17 15 17 18 21 21 24 26 18 21 25 27 33 43 42 45 45 41 37 39 45 40 41 41 33 36 32 32 32 35 38
15 13 12 13 13 11 6 7 13 15 24 23 25 20 15 15 16 15 15 18 21 27 21 22 21 20 26 36 41 44 44 40 40 39 49 43 45 45 42 37 35 32 34 37 39
19 16 14 17 15 11 17 18 28 30 24 15 12 12 11 7 15 8 13 16 20 32 33 24 19 23 28 31 33 36 39 39 39 45 50 47 44 47 42 37 35 34 32 33 39
23 21 17 19 21 14 24 27 34 33 25 10 6 7 8 7 7 5 10 12 16 27 35 33 24 26 26 28 31 31 37 42 43 47 49 55 47 45 43 36 35 34 32 31 34
22 24 24 20 21 22 28 42 45 41 38 12 7 6 9 11 13 11 10 12 15 18 29 33 34 32 25 25 32 31 35 39 47 54 56 59 57 49 46 40 36 34 33 33 38
27 29 30 29 32 25 39 45 47 45 53 4 18 20 16 15 22 20 18 17 15 18 26 22 29 35 33 33 33 33 44 40 46 51 54 55 61 48 48 46 40 34 32 33 36
38 38 35 32 33 32 39 45 40 51 50 8 26 23 25 21 20 23 20 20 20 22 22 22 27 30 32 34 37 42 46 48 47 54 60 58 59 50 48 48 45 39 38 35 37
38 41 40 41 33 49 60 53 51 66 12 7 8 39 28 28 23 25 31 25 24 28 24 21 22 26 33 37 38 42 45 60 70 67 58 47 54 50 44 46 48 43 39 35 40
31 34 37 52 59 65 81 92 70 28 16 22 40 51 68 52 49 42 36 36 32 29 28 29 29 21 26 34 41 43 45 61 71 72 61 53 67 56 55 52 48 48 47 44 44
40 50 43 64 85 72 82 92 46 27 32 47 35 47 48 55 53 60 49 41 41 41 40 37 29 29 29 33 45 44 51 45 54 56 77 68 59 51 63 54 54 52 50 45 43
47 53 53 72 84 94 93 58 40 31 52 54 48 47 54 56 59 60 57 54 51 51 43 47 44 35 42 39 35 37 43 54 55 63 70 61 66 71 71 62 60 56 50 53 50
50 55 59 75 77 97 78 57 41 34 61 65 52 66 66 65 60 74 75 62 80 62 62 55 46 57 55 40 39 44 50 55 58 66 63 57 54 62 72 69 67 62 56 56 57
53 57 68 80 88 82 77 61 42 37 54 60 51 54 64 63 62 64 89 79 81 79 69 65 56 68 61 56 52 47 50 50 65 60 58 52 44 60 59 71 65 67 59 56 54
63 56 65 87 98 89 78 68 53 46 51 51 57 42 52 58 51 66 86 71 64 83 77 71 62 63 70 67 60 55 49 46 48 49 51 61 57 64 65 64 74 73 68 62 57
70 69 63 74 90 94 91 95 79 54 54 53 55 46 36 46 55 61 72 68 57 60 70 61 52 47 60 78 76 61 66 69 70 56 47 50 51 64 71 74 71 64 63 69 60
71 72 72 84 96 90 89 77 88 94 66 54 54 45 41 45 51 52 67 64 56 49 57 60 58 46 46 51 53 52 50 57 75 67 62 53 50 60 70 78 64 58 64 66 62
72 75 75 76 84 93 88 92 78 78 84 85 61 42 45 44 43 48 51 52 58 65 57 56 57 55 42 44 49 58 40 39 53 58 54 53 50 52 54 57 58 61 65 65 65
72 77 80 73 73 79 83 89 90 71 72 77 82 71 59 54 54 49 47 45 49 66 67 60 57 56 59 42 38 48 43 38 31 33 37 40 41 47 44 55 66 63 59 57 58

GFSSW_prec_cthk_102.txt.gz
RH
30 29 28 27 27 27 27 28 28 27 28 29 29 29 28 27 27 27 28 28 28 26 27 26 24 20 19 20 19 20 24 23 20 20 22 23 24 23 23 24 24 24 25 24 27
35 32 30 28 27 27 27 26 25 25 25 25 25 25 25 25 27 30 30 31 31 30 28 29 27 23 23 23 22 23 24 21 19 20 22 25 25 24 25 26 25 25 25 25 28
32 32 29 27 26 25 24 24 25 24 23 22 22 22 21 22 23 28 29 29 31 32 31 30 30 27 26 24 23 23 23 20 19 20 23 24 25 25 24 25 27 28 28 27 28
30 30 28 25 24 23 21 21 23 23 23 23 21 20 20 19 23 34 32 28 28 29 30 31 33 29 30 30 27 26 23 22 21 23 24 24 24 24 25 24 26 27 27 28 28
31 30 27 25 23 19 18 17 17 18 20 21 21 21 20 20 23 18 20 26 28 28 29 30 32 33 31 33 34 31 28 26 25 25 24 25 25 25 23 24 27 26 28 28 26
24 23 22 21 20 19 18 15 13 13 14 16 20 21 22 26 20 20 22 23 26 26 27 32 34 34 33 35 35 32 31 29 28 27 27 27 27 27 22 26 28 29 28 28 26
20 18 16 18 17 15 14 14 11 12 13 13 14 16 24 21 19 17 17 20 23 25 24 27 34 38 37 37 35 33 33 30 29 30 31 29 27 27 25 28 29 29 28 28 27
13 13 12 10 9 10 10 6 5 8 9 10 11 13 19 14 17 17 17 16 20 23 22 23 30 31 35 36 36 36 34 33 29 32 32 33 27 28 27 32 31 30 29 29 28
13 12 12 9 8 7 6 3 2 3 3 5 8 14 17 13 17 19 20 19 18 19 20 21 24 28 31 36 39 40 36 35 34 37 39 38 30 31 33 35 33 30 29 29 30
11 12 11 10 7 7 6 3 4 7 9 9 14 20 11 12 12 16 19 23 21 23 24 19 22 23 30 37 36 39 38 36 38 41 45 43 32 33 35 35 34 33 30 31 31
14 12 12 10 8 7 8 6 10 12 16 16 18 16 8 13 15 17 18 18 18 21 27 21 21 22 22 29 33 38 39 37 36 39 43 43 37 36 38 38 36 34 32 35 37
14 15 15 14 13 10 14 22 29 32 25 15 13 11 8 9 15 11 16 18 16 19 26 28 21 19 20 22 27 34 37 33 34 36 40 43 33 35 40 40 39 36 34 35 37
16 17 17 18 17 13 16 26 32 36 36 18 8 7 4 3 6 5 7 10 12 17 23 30 23 21 22 23 25 26 30 31 32 37 37 40 32 36 40 44 42 37 34 34 36
17 18 19 21 21 25 23 31 36 42 48 19 12 5 5 6 7 4 5 7 9 11 18 26 26 30 27 23 26 24 27 29 30 34 37 45 41 38 41 45 45 40 38 38 38
21 24 29 30 27 22 23 32 42 47 62 7 9 6 11 11 9 12 11 11 9 12 14 18 25 27 31 28 29 22 29 33 36 33 37 42 51 36 40 44 46 41 40 42 40
18 19 23 24 26 24 30 32 48 66 55 14 16 26 30 22 19 23 25 22 18 16 17 17 21 25 29 33 33 32 36 40 42 45 48 48 56 40 43 43 43 44 44 46 43
18 21 25 29 26 35 43 48 66 73 28 12 16 45 59 47 21 24 27 28 29 31 26 20 18 19 25 27 33 37 44 54 55 57 50 43 52 39 41 43 45 43 42 43 39
24 26 32 36 35 48 67 75 91 49 28 24 36 30 40 36 45 40 35 33 29 29 32 31 28 20 20 24 32 41 46 57 59 67 55 48 55 48 56 57 48 47 45 45 44
26 28 30 36 44 59 83 90 96 74 69 57 47 48 65 69 83 70 64 46 36 36 40 39 29 26 22 21 33 36 51 48 54 57 64 64 57 47 50 58 59 55 54 52 49
32 34 32 43 52 72 90 74 83 71 60 66 65 68 76 80 77 82 86 87 78 62 60 49 46 32 32 32 27 34 42 54 54 59 63 59 55 60 61 66 70 65 62 63 68
39 44 44 64 74 80 88 80 61 51 47 60 74 70 73 77 71 81 93 83 80 80 67 61 58 45 44 43 38 36 43 57 57 60 56 64 54 55 61 60 79 75 67 64 66
45 50 51 79 87 92 82 97 76 54 49 52 81 73 68 70 68 85 85 87 62 68 91 74 64 58 57 63 53 47 48 53 63 62 64 67 56 55 62 63 74 81 73 67 63
48 49 48 69 85 96 91 85 79 64 54 52 81 75 61 65 67 67 82 74 71 65 88 88 84 79 63 71 67 57 61 60 59 61 65 71 65 67 70 73 74 72 83 79 70
52 54 58 72 90 98 98 93 87 81 58 65 63 58 61 65 66 69 65 69 66 67 69 84 84 66 72 83 77 67 61 73 74 72 64 65 55 72 79 77 78 76 78 85 79
58 57 60 71 80 82 83 85 92 86 79 75 63 59 53 44 52 61 60 58 52 61 72 77 81 72 64 64 64 68 60 65 75 83 70 64 65 65 67 70 76 77 74 80 87
61 60 63 66 76 89 80 78 93 96 92 90 80 64 57 53 50 62 58 53 60 61 67 76 78 70 61 57 62 62 59 61 59 62 76 59 54 57 55 63 64 75 76 83 88
61 66 66 64 67 77 80 77 85 92 85 88 90 82 64 55 53 55 52 50 60 60 62 72 77 73 67 54 46 54 52 53 54 52 63 68 68 61 67 64 66 70 71 77 75

GFSSW_prec_cthk_105.txt.gz
RH
34 34 33 32 30 28 28 27 26 25 25 24 25 25 25 28 29 29 30 29 29 27 26 27 27 23 22 21 19 19 22 23 20 19 17 22 23 23 24 23 22 23 23 23 24
35 34 33 31 29 28 27 26 25 25 25 24 24 24 22 23 24 27 28 31 32 30 31 30 31 27 25 25 23 22 24 21 19 18 18 23 24 25 25 24 22 22 23 23 24
36 35 33 29 27 24 23 23 23 22 22 22 23 23 21 20 22 26 28 28 32 32 32 33 32 31 28 27 25 23 23 20 19 19 20 21 22 25 25 22 23 24 23 24 26
31 30 29 28 26 23 22 21 20 19 19 20 20 20 21 21 21 29 27 29 31 31 33 34 35 32 31 30 29 26 24 23 21 21 22 21 22 24 25 22 23 23 25 25 27
25 25 25 23 22 20 19 18 17 17 16 16 16 17 18 20 25 20 19 24 28 31 33 34 34 34 31 31 34 30 27 26 25 25 24 24 23 23 22 24 25 24 25 26 27
25 22 22 21 18 17 15 13 13 14 14 14 14 14 14 20 18 20 20 22 23 26 30 32 33 34 34 33 34 33 33 32 30 29 28 25 24 25 20 25 27 27 26 27 27
22 23 20 16 12 11 11 8 8 11 11 13 13 13 16 12 12 15 19 21 22 23 27 29 31 36 37 37 36 35 35 35 32 31 28 29 25 24 25 28 29 28 27 28 27
18 15 14 10 6 4 3 3 3 5 6 5 6 9 14 9 10 11 13 17 19 20 23 26 28 29 32 35 37 38 37 39 33 32 30 32 22 25 28 31 32 30 29 28 27
24 23 20 16 12 9 5 2 2 5 5 6 5 6 9 6 8 16 18 18 19 18 20 24 24 26 30 36 40 40 39 37 36 33 33 33 27 26 29 31 30 29 31 29 28
17 15 16 15 14 14 8 4 4 9 10 10 12 13 6 8 11 10 15 18 20 21 25 21 23 24 30 37 37 38 40 36 36 35 40 35 29 30 30 31 31 31 34 31 28
9 10 10 10 9 8 6 8 8 10 13 13 12 16 9 8 8 8 12 15 20 22 24 26 23 23 23 28 30 34 38 39 36 36 40 35 31 32 34 34 34 33 36 35 32
10 10 10 10 10 9 13 21 29 32 28 14 11 9 5 6 10 3 7 16 16 18 22 28 26 21 22 25 29 32 34 35 36 37 40 34 27 29 31 33 33 34 37 35 33
13 13 14 13 12 14 16 23 30 36 37 20 7 8 6 5 7 4 5 11 16 16 18 25 23 22 21 22 24 25 28 32 33 34 34 32 27 25 28 30 32 34 37 37 37
15 15 16 16 16 15 18 21 31 42 50 20 16 8 6 9 9 4 3 5 8 11 15 20 18 25 26 21 24 23 22 25 30 36 40 37 33 28 28 27 29 32 36 37 39
16 14 14 16 21 19 24 20 27 46 62 10 11 13 19 12 7 7 6 6 5 7 11 9 22 23 25 25 26 21 27 28 33 35 36 32 43 29 29 29 28 31 38 41 41
16 15 17 19 21 25 28 25 32 51 59 23 14 26 32 30 21 22 21 16 10 9 11 8 16 21 25 25 25 27 33 35 37 41 43 34 41 28 30 31 33 33 34 37 40
16 15 16 20 26 27 29 34 49 63 33 28 25 24 42 52 35 44 45 33 32 25 20 15 14 15 23 23 26 32 39 47 53 59 44 38 46 32 34 33 45 45 40 40 41
16 14 16 24 25 30 37 56 70 53 56 58 56 36 57 70 65 74 58 49 44 44 36 27 18 15 15 23 27 32 38 48 50 56 51 47 48 38 36 54 55 50 48 47 44
18 17 22 29 27 36 52 67 67 69 97 95 75 75 69 75 83 88 79 79 67 60 51 47 34 23 19 16 22 25 43 32 49 54 61 52 45 40 42 50 54 57 56 54 58
23 22 28 37 36 49 63 66 73 80 85 84 78 94 83 85 81 67 88 84 81 74 62 56 51 38 36 35 25 25 28 51 57 56 61 53 52 48 45 52 56 65 65 62 59
29 28 40 41 50 65 70 68 73 81 88 77 74 78 87 89 91 88 95 95 86 83 71 60 56 46 42 43 41 31 34 48 53 62 56 58 54 43 46 51 58 66 73 68 66
37 37 41 40 56 70 78 77 73 74 75 71 59 70 96 83 82 92 98 93 91 86 92 74 65 62 50 49 49 50 41 40 58 57 58 58 53 55 58 65 67 68 79 77 73
40 40 44 48 56 77 81 83 77 77 75 63 55 69 88 82 76 79 78 78 74 79 84 85 77 71 62 63 57 56 49 50 46 55 62 68 67 61 64 66 66 70 78 87 81
44 45 46 59 66 73 83 75 83 85 78 80 68 66 79 74 72 67 69 70 68 67 63 67 81 89 89 84 78 68 56 60 56 63 74 73 68 70 71 79 79 82 81 85 83
49 49 55 58 68 75 82 74 80 89 85 86 72 81 78 66 67 71 66 68 67 68 66 72 91 91 85 71 77 84 68 66 72 74 73 68 57 59 70 77 76 77 85 85 88
54 54 58 58 58 70 74 76 74 83 91 92 95 81 75 72 65 69 65 63 62 67 60 66 88 95 88 76 71 80 78 68 68 74 77 77 62 66 74 81 73 83 87 85 89
56 59 62 55 56 61 70 75 75 83 79 86 81 80 73 65 55 53 54 44 48 55 53 53 76 92 87 70 60 65 68 65 62 70 70 81 78 73 75 75 76 80 81 84 85

GFSSW_prec_cthk_108.txt.gz
RH
34 32 32 31 29 28 27 28 27 26 26 26 25 25 25 25 26 27 29 31 32 30 29 28 27 26 25 23 21 19 21 23 20 19 15 15 20 22 21 22 21 21 21 22 23
32 32 30 29 28 27 27 26 25 25 24 23 23 24 24 24 26 27 28 30 33 34 32 33 31 31 30 28 26 25 26 22 19 17 15 15 17 21 21 21 21 22 23 22 23
31 29 28 28 27 26 26 26 26 24 22 22 21 21 21 22 24 25 28 27 31 33 33 34 36 35 34 33 32 29 26 22 20 19 17 17 17 21 21 22 22 24 23 23 23
29 29 28 26 24 23 22 22 21 22 23 21 20 19 19 18 21 25 27 28 29 28 34 35 36 37 38 36 34 31 27 26 24 23 21 19 19 19 20 21 23 25 25 24 24
27 27 25 23 21 20 19 18 19 19 19 19 19 19 18 18 18 17 21 22 24 28 29 34 37 39 37 36 35 33 30 28 27 27 24 23 21 20 20 19 23 25 27 26 25
27 24 24 22 19 16 14 14 14 15 14 15 15 16 18 22 15 15 16 20 22 24 31 33 34 37 36 38 38 35 35 33 30 29 27 27 23 25 19 20 23 25 26 26 26
26 25 24 23 20 18 14 11 11 12 11 11 12 12 16 12 12 13 13 13 18 23 22 25 34 37 39 39 38 38 38 38 35 34 33 33 27 25 23 24 24 25 25 25 26
26 24 23 22 19 16 14 11 9 6 3 5 8 9 10 5 5 9 16 15 13 16 19 22 28 33 33 34 36 39 39 39 36 35 35 39 26 26 26 27 27 26 26 26 27
27 25 24 22 21 20 18 17 18 16 15 11 9 8 9 5 5 8 13 13 15 14 14 19 24 28 30 34 37 38 42 41 38 36 38 40 28 29 29 30 29 27 27 29 28
16 14 9 7 6 7 7 3 3 6 10 13 23 21 10 8 8 10 10 13 14 14 17 19 22 24 28 33 33 40 42 40 40 38 42 43 34 35 33 32 30 28 28 31 30
8 8 6 6 6 6 6 4 6 8 9 12 9 12 8 4 4 3 5 10 14 16 18 20 23 21 23 26 27 32 37 39 38 40 41 41 34 35 34 31 31 29 28 30 31
8 8 7 6 6 9 9 15 24 28 25 13 11 8 8 8 12 5 4 6 9 15 17 22 23 20 21 23 26 29 33 32 35 38 40 38 28 30 31 28 27 27 28 31 33
9 8 8 7 8 10 12 14 20 26 29 18 8 10 9 11 12 10 6 8 8 10 14 20 16 17 23 25 25 26 29 32 35 34 32 34 24 23 23 22 23 25 27 30 34
9 10 9 9 11 11 13 13 17 29 35 21 18 16 17 17 15 10 9 10 10 9 13 16 12 18 23 25 26 24 23 27 31 34 35 31 30 23 22 21 24 26 27 29 32
10 11 12 13 13 15 15 14 17 32 33 15 17 24 22 26 22 17 18 16 10 9 12 10 17 16 18 17 22 21 23 26 29 33 32 31 33 26 27 28 27 28 30 30 30
12 13 14 15 16 20 20 17 20 35 40 21 21 28 31 33 35 39 29 24 20 14 10 7 10 13 12 14 17 22 27 31 37 39 41 33 34 28 26 25 31 35 34 37 31
14 15 16 16 19 21 22 23 31 43 22 31 44 43 38 48 39 55 54 37 36 34 21 10 11 12 17 21 26 29 34 48 56 52 42 35 39 26 29 31 37 38 41 41 42
15 16 18 21 21 22 24 33 46 31 40 49 69 58 73 71 66 68 71 68 54 57 49 36 23 13 15 21 25 29 33 43 50 58 45 42 40 33 30 36 42 41 42 42 44
16 18 24 27 24 26 32 45 45 44 53 70 66 76 76 75 85 92 84 98 93 87 74 58 43 27 15 11 21 29 37 30 42 49 51 45 41 35 36 38 40 44 49 48 50
20 19 27 31 30 35 45 47 49 56 62 73 77 76 79 72 88 96 96 95 96 96 87 67 60 50 33 28 23 24 26 42 51 50 52 45 46 44 44 41 47 51 54 54 52
23 23 35 35 39 43 54 54 54 62 64 71 67 72 76 76 96 97 96 97 88 91 97 83 63 54 60 54 45 30 29 36 42 52 47 44 44 40 38 41 47 51 55 57 54
29 32 40 36 38 49 54 59 62 65 70 70 68 70 79 92 97 96 97 90 73 81 97 96 81 62 60 66 61 50 39 34 44 40 49 49 44 51 53 47 48 55 64 67 58
33 35 39 44 43 52 51 59 64 66 76 74 73 69 75 84 94 84 89 75 75 86 98 98 91 77 62 71 69 68 63 53 38 43 52 62 49 55 58 53 52 54 57 66 67
39 42 44 55 57 57 57 59 61 64 73 78 77 82 80 71 71 71 75 67 71 74 93 96 98 91 87 84 84 86 62 58 54 53 41 53 64 67 65 65 63 61 66 69 80
44 44 48 50 57 58 59 58 62 68 74 82 80 81 85 76 63 63 63 62 56 72 77 90 98 94 88 79 82 85 83 65 65 57 54 55 52 54 62 78 74 67 71 78 84
48 48 51 49 53 54 57 58 65 67 72 81 80 80 83 83 75 63 59 59 60 52 65 77 78 89 87 72 63 72 86 94 68 63 69 61 63 62 60 70 76 73 78 83 83
48 52 54 51 54 55 51 56 62 69 71 74 78 80 81 80 76 67 56 52 53 54 57 66 77 66 77 76 66 73 76 82 73 66 70 68 73 77 77 77 80 79 83 88 84

GFSSW_prec_cthk_111.txt.gz
RH
28 27 26 26 27 26 27 27 26 25 25 25 25 25 25 26 27 26 26 28 31 31 32 31 31 30 29 28 25 22 20 19 16 18 14 14 14 17 19 20 19 20 21 22 21
24 24 24 24 24 24 25 25 24 24 24 25 25 24 22 22 23 26 29 30 31 33 32 36 35 35 33 31 30 27 23 20 19 19 17 15 14 18 19 19 20 21 22 22 22
22 23 23 23 23 23 23 25 25 23 23 22 23 23 23 22 21 24 28 28 30 31 33 35 37 37 38 36 34 32 26 26 24 23 21 17 15 15 17 19 20 20 21 22 22
20 20 20 19 17 17 18 19 20 21 21 20 20 20 19 20 21 21 24 26 29 30 31 36 39 42 41 38 38 36 33 31 30 29 26 22 20 17 16 17 19 20 22 23 23
19 18 17 16 16 17 17 17 16 16 16 17 17 17 18 18 17 18 19 19 21 25 28 31 36 39 38 40 39 38 35 33 32 32 30 28 23 21 19 17 18 21 23 24 24
17 16 15 17 18 18 17 16 17 16 14 13 14 14 17 16 13 14 15 17 18 22 27 31 33 37 38 37 37 36 36 35 34 33 33 31 26 25 22 20 20 21 21 22 23
18 20 20 20 19 17 17 16 16 18 17 15 13 14 16 8 9 11 13 12 15 15 19 24 28 35 40 38 37 37 37 38 37 36 35 36 28 28 28 27 25 24 23 22 22
23 22 20 19 18 18 19 17 18 17 17 19 20 16 13 6 4 7 12 14 18 22 16 18 23 23 32 36 35 37 37 38 37 40 39 39 28 31 31 31 30 28 27 26 25
22 20 17 16 13 12 10 8 8 6 8 8 8 10 14 15 16 13 11 12 12 14 21 16 18 23 26 31 31 31 31 37 38 38 40 39 31 33 34 33 34 32 30 28 26
16 14 11 12 10 6 3 3 3 4 6 6 9 9 6 5 4 7 18 11 9 13 12 11 15 19 25 29 29 30 34 36 35 37 40 39 35 36 36 35 35 33 31 29 27
13 13 11 9 7 6 5 4 5 7 7 11 7 11 7 6 8 7 5 6 15 8 13 11 12 16 17 21 23 25 30 31 34 37 40 38 35 34 35 35 35 34 32 29 26
14 12 9 7 7 8 8 9 18 18 20 8 8 14 13 15 19 10 10 11 8 6 8 19 20 11 12 17 22 24 25 23 27 31 35 34 28 30 29 28 29 29 28 26 25
12 11 8 8 7 8 9 13 15 19 20 12 14 17 16 17 19 17 14 16 14 9 9 14 9 12 13 15 19 22 24 25 26 30 32 33 24 22 21 23 23 22 23 24 24
10 11 9 6 9 10 11 11 13 15 18 15 16 21 18 16 20 17 17 20 18 17 13 12 7 13 16 17 19 21 22 25 27 33 30 28 22 23 22 21 22 23 23 24 24
13 8 7 9 11 13 14 11 12 20 8 15 19 19 19 23 26 21 22 26 25 24 28 13 15 13 14 14 20 19 20 23 27 30 31 25 27 21 26 26 25 28 28 28 27
8 9 10 12 13 14 14 12 14 15 13 13 17 19 23 26 29 41 43 36 35 34 28 20 17 18 12 13 13 16 18 22 29 32 32 25 26 23 24 25 32 34 33 33 32
9 11 12 14 16 16 15 17 17 16 16 21 24 32 32 39 46 55 57 49 53 41 35 26 24 14 17 16 15 16 22 32 39 42 34 32 32 22 30 34 36 36 37 36 34
10 12 15 20 19 18 19 23 24 23 26 29 35 33 41 51 46 61 83 72 63 76 56 55 36 22 12 19 17 17 19 28 32 40 31 34 33 27 29 31 40 42 38 36 35
12 16 22 24 22 23 23 30 25 33 36 41 38 38 42 65 66 78 89 97 98 98 88 77 48 39 28 16 24 29 32 19 31 40 43 38 34 35 36 42 48 44 39 40 38
15 22 27 29 26 27 31 34 36 41 43 49 58 49 51 58 70 88 97 93 96 94 98 91 85 61 52 31 28 32 23 39 39 42 45 41 44 38 48 49 51 49 46 44 39
19 25 34 31 32 31 37 39 43 47 51 54 61 62 57 69 82 85 81 77 79 81 93 98 89 57 61 41 22 27 37 41 34 36 34 35 36 38 44 54 52 47 45 44 43
25 30 37 35 30 36 40 45 47 53 56 59 62 69 72 81 82 83 79 77 74 78 90 98 94 78 52 80 78 46 28 36 38 35 34 35 36 44 47 50 50 52 49 49 48
29 31 35 36 37 42 42 45 48 52 56 64 70 81 77 78 80 69 61 59 69 73 92 96 93 91 62 63 81 89 72 45 37 39 35 41 31 43 50 57 57 55 56 56 51
31 36 39 47 47 45 48 49 49 46 55 64 75 80 81 73 67 64 60 55 63 72 82 93 98 98 84 70 75 85 93 84 56 41 31 39 49 57 56 56 60 59 58 58 57
34 36 40 46 53 49 48 49 51 52 51 60 72 75 89 80 66 64 56 54 52 65 66 85 97 96 93 76 69 81 80 79 81 64 47 29 36 49 57 65 64 61 63 64 65
38 39 43 42 45 46 48 48 49 52 55 58 69 71 81 82 78 69 65 59 57 52 58 67 88 83 89 81 67 68 78 75 64 72 67 59 58 57 55 63 67 62 66 69 74
43 43 44 45 47 48 46 47 49 48 54 61 62 67 73 74 71 64 60 53 54 56 49 57 74 62 54 68 78 77 81 77 70 69 65 60 61 64 69 69 71 70 71 78 80

GFSSW_prec_cthk_114.txt.gz
RH
23 22 21 20 19 18 18 18 19 19 19 20 23 23 24 26 25 25 26 28 30 29 28 31 34 36 34 32 29 27 22 18 17 17 16 15 12 13 15 17 19 21 21 21 20
21 20 19 16 17 16 15 15 15 15 15 16 17 18 19 22 25 25 27 29 30 31 32 32 36 39 38 36 34 29 25 21 20 20 19 17 16 15 15 17 19 21 20 20 20
20 18 17 15 15 14 13 13 13 13 14 14 16 15 15 16 20 24 28 28 30 31 31 35 35 39 39 41 39 34 28 28 25 26 24 21 19 16 15 17 18 21 21 21 21
19 17 16 16 15 14 13 14 13 12 11 10 13 14 16 17 18 18 19 22 23 24 29 34 38 37 38 38 40 40 36 35 32 32 30 27 25 22 18 16 18 20 22 21 23
17 15 14 14 13 12 12 13 12 12 11 10 12 13 13 15 15 15 16 19 21 22 27 31 35 38 39 40 42 40 39 37 38 37 34 32 28 26 23 21 16 18 20 21 22
17 15 14 14 14 13 12 12 12 12 13 13 14 16 17 16 11 12 12 14 16 18 22 27 30 35 36 38 38 38 38 39 38 37 37 35 32 31 28 26 22 19 18 20 22
17 16 15 16 16 14 14 14 14 12 13 12 12 12 15 16 15 17 18 14 16 19 19 20 25 32 37 37 37 38 38 38 37 38 37 37 32 32 32 31 28 24 22 21 22
18 18 18 18 17 16 15 13 11 9 8 8 8 10 11 9 11 21 24 21 16 22 19 22 18 24 27 30 37 37 37 38 37 38 38 39 30 33 33 32 31 30 28 27 25
21 20 18 17 16 13 10 8 7 6 7 7 9 6 10 9 9 8 7 8 16 28 23 13 13 24 26 28 29 31 30 31 35 40 39 38 33 37 36 34 33 32 31 31 30
22 20 17 13 11 10 8 6 7 8 8 8 11 9 9 10 8 8 9 7 7 9 17 25 20 12 17 28 26 27 29 29 30 31 35 36 34 36 36 35 35 35 34 33 32
22 15 13 12 12 9 8 7 11 15 8 11 12 14 14 14 12 12 10 10 10 10 9 13 21 16 12 11 20 24 25 26 26 31 38 34 32 33 34 33 33 32 32 33 33
16 13 12 12 10 9 9 12 14 13 16 13 14 17 17 17 14 13 11 13 14 15 12 11 12 9 14 10 10 14 20 22 23 26 32 30 25 27 27 29 29 29 29 29 29
13 12 13 10 10 10 12 13 14 17 19 12 15 17 16 13 11 14 13 15 18 18 17 13 5 13 12 16 16 14 13 16 22 26 26 26 23 24 23 23 23 23 23 23 23
13 14 12 10 11 10 14 12 14 15 14 14 16 22 14 12 16 15 15 25 23 21 24 17 11 10 12 16 14 14 14 15 18 22 24 25 21 21 23 22 21 22 23 24 25
15 15 12 11 12 13 11 12 12 18 8 13 14 12 16 17 18 31 26 29 28 32 34 18 20 22 16 9 22 15 18 17 19 22 25 23 24 19 19 19 22 22 27 29 28
18 15 13 13 10 11 12 12 15 16 12 12 13 16 17 18 21 29 31 47 53 49 34 31 30 30 20 19 14 21 26 20 21 22 26 20 24 19 20 24 24 32 34 34 35
18 15 15 12 13 13 13 16 17 11 12 17 20 20 21 23 26 33 41 64 87 89 77 59 32 25 24 23 21 23 31 27 29 29 20 21 26 19 22 27 31 37 38 38 37
18 16 18 12 14 15 16 20 22 17 19 19 24 24 28 27 26 41 57 74 73 85 88 84 52 48 32 26 20 30 29 26 24 24 24 31 26 21 22 27 37 39 41 41 40
18 22 21 17 19 18 23 25 19 24 28 30 27 25 27 35 40 52 61 70 73 88 97 89 78 53 55 27 21 26 36 17 24 30 36 29 27 24 26 26 37 41 43 43 46
26 28 27 22 22 24 27 26 26 30 32 34 38 37 41 39 44 54 66 60 74 80 92 96 82 63 69 42 35 27 25 30 30 32 25 19 27 35 36 34 42 45 46 47 50
31 34 32 27 26 30 30 28 31 36 38 39 42 44 48 54 56 62 70 56 64 78 80 96 97 71 66 55 42 35 43 43 28 28 29 32 31 44 52 44 49 51 51 49 47
32 38 32 30 34 32 31 33 34 38 41 44 48 53 58 62 56 64 69 63 66 76 83 97 97 85 72 78 58 39 43 47 44 36 30 35 34 52 48 55 58 52 50 49 51
40 39 37 36 41 32 34 36 37 37 38 49 55 58 59 59 73 61 52 50 61 71 91 89 93 78 70 72 82 71 46 54 53 44 44 40 35 55 52 49 52 55 56 57 54
43 49 46 45 40 35 41 38 36 35 40 49 52 61 55 55 62 58 55 49 59 65 78 81 97 97 96 97 86 95 85 63 49 55 43 42 40 62 58 53 57 64 61 53 53
48 46 46 50 45 40 40 37 38 41 43 45 55 60 56 57 51 56 52 42 48 55 68 74 81 90 83 84 69 82 92 90 68 51 55 38 40 53 52 59 64 64 64 62 61
47 46 41 40 43 44 41 37 37 43 45 48 54 55 55 59 62 57 54 48 50 49 63 59 75 68 68 82 69 65 77 76 79 74 55 48 39 51 64 63 82 73 67 68 59
47 43 39 40 40 39 41 37 41 43 40 45 56 49 53 57 54 51 52 45 51 56 65 61 62 55 65 73 79 76 77 70 70 72 71 70 63 56 53 63 73 70 67 66 65

GFSSW_prec_cthk_117.txt.gz
RH
23 21 19 18 16 15 14 13 13 12 12 13 13 14 15 15 15 18 22 22 26 28 29 29 31 36 37 36 35 33 28 22 21 22 20 20 17 17 15 17 20 21 22 26 25
21 19 18 17 15 14 13 12 12 10 11 11 11 11 12 12 12 20 18 21 23 27 32 33 32 35 39 39 39 37 32 25 25 23 21 21 19 18 19 17 18 19 18 21 23
21 19 18 17 15 14 13 11 11 9 10 10 10 9 8 8 16 21 14 16 20 22 27 34 35 35 39 41 41 41 34 33 29 29 25 22 21 20 18 20 21 22 22 20 22
21 19 17 16 15 13 12 11 11 11 10 11 10 9 7 8 10 12 8 10 13 17 22 28 35 39 37 38 42 41 40 40 38 35 31 27 27 24 22 20 19 24 23 25 21
20 20 18 17 15 13 13 12 11 11 10 11 11 11 11 16 15 12 9 9 10 15 22 28 29 34 41 40 41 41 41 43 42 40 37 34 30 29 26 27 24 20 21 22 20
22 19 18 16 15 15 14 13 12 12 11 12 11 10 14 14 13 13 15 17 16 16 16 16 25 28 32 36 40 44 45 43 44 42 41 39 35 35 29 30 29 26 22 21 21
22 20 19 18 18 16 16 14 13 13 12 10 8 8 13 13 10 17 16 17 20 20 24 25 19 20 31 32 36 37 40 42 39 40 40 42 36 35 36 35 33 30 28 23 21
23 21 21 20 19 18 16 14 14 12 8 7 6 12 16 10 12 11 10 8 9 10 15 21 24 26 18 30 28 29 37 41 38 41 40 44 30 35 37 37 34 33 33 31 27
25 23 22 21 20 17 15 13 10 8 6 6 14 15 19 14 12 10 10 9 7 7 6 12 14 17 27 20 27 32 26 29 35 38 43 43 36 35 38 39 35 35 33 33 33
27 25 23 22 19 16 13 11 10 8 9 14 19 14 18 15 11 11 10 9 10 10 9 10 13 11 15 22 27 17 30 32 30 33 36 38 36 37 37 39 37 35 35 35 35
28 25 24 22 18 13 12 13 13 20 13 12 15 15 14 12 12 10 11 8 12 12 13 13 11 10 11 14 12 22 23 17 34 33 33 33 33 34 36 35 35 36 36 38 37
27 24 26 19 15 13 15 14 13 10 18 17 19 20 16 13 9 8 11 12 13 13 15 13 10 9 10 11 11 12 16 26 19 20 31 29 32 36 33 30 32 32 33 35 35
26 27 24 18 14 16 18 15 16 18 23 19 19 18 14 12 12 15 14 17 17 20 20 17 10 18 15 13 13 12 12 13 21 18 27 31 29 26 24 24 24 23 26 30 30
29 27 23 17 19 17 20 17 18 19 26 21 19 22 15 15 18 17 23 20 25 26 23 20 20 23 18 14 11 19 14 18 17 22 22 23 24 23 23 23 24 23 24 24 25
30 28 22 16 16 20 16 18 20 27 25 20 16 14 16 16 17 20 20 21 30 41 44 31 36 32 32 20 21 10 17 26 22 25 26 22 18 18 21 23 25 24 23 25 29
31 27 20 20 22 16 16 16 22 35 25 19 16 16 15 17 18 21 22 34 43 46 48 47 46 52 35 35 37 24 24 26 30 33 40 19 21 17 22 24 27 29 27 31 40
31 25 20 20 25 15 16 25 27 23 17 20 19 17 17 21 20 22 27 36 56 55 45 42 53 56 56 49 41 38 33 32 47 44 29 18 23 18 22 25 29 41 41 43 45
30 24 20 22 19 18 24 30 33 22 20 21 20 19 20 21 26 31 43 48 65 65 68 67 46 63 76 72 49 49 45 37 44 40 22 18 24 17 24 26 34 40 43 43 46
30 30 31 22 19 24 32 40 27 26 26 27 22 22 24 31 31 35 48 57 65 62 87 76 56 55 67 57 62 44 44 36 40 34 31 24 19 21 27 31 43 47 44 49 48
41 37 38 22 22 32 36 31 28 25 26 29 31 28 28 36 39 41 51 59 62 63 72 84 76 65 67 73 58 48 40 40 40 46 35 24 25 26 33 41 51 49 48 52 48
38 44 39 26 29 37 43 35 33 32 27 30 33 34 34 36 38 47 62 66 63 61 65 80 96 68 81 80 59 45 40 34 40 38 37 28 25 26 31 40 48 61 56 55 54
41 51 40 34 45 36 38 36 31 35 35 33 34 40 43 43 40 49 66 68 64 57 64 89 88 85 78 80 67 65 40 34 37 41 32 29 28 41 32 51 56 67 62 62 56
51 46 40 43 53 42 44 36 32 34 33 36 41 48 44 46 47 51 55 57 63 55 67 76 83 84 62 81 84 74 53 40 39 35 32 34 32 49 55 66 66 80 58 60 52
47 54 53 49 50 49 49 39 36 29 28 30 42 43 52 42 45 51 54 56 53 52 51 76 81 88 90 93 84 96 67 58 52 56 35 35 29 70 53 53 56 73 56 57 59
56 55 57 61 54 44 43 38 36 33 31 43 39 50 54 45 43 47 52 46 44 51 52 71 71 69 62 62 75 81 86 60 63 70 53 44 37 54 58 52 53 66 71 66 58
56 57 55 55 56 49 46 35 32 36 36 37 46 41 52 45 49 48 48 50 39 42 50 67 65 61 63 73 71 77 82 78 65 55 58 49 51 50 55 75 55 53 67 78 77
66 57 52 53 49 47 42 38 33 32 35 34 37 43 44 45 43 41 38 37 43 51 56 68 63 69 62 67 81 89 86 83 85 80 50 63 57 61 49 55 80 71 77 92 79

GFSSW_prec_cthk_120.txt.gz
RH
28 26 23 20 18 17 16 15 14 14 12 11 10 9 8 8 8 12 17 15 18 20 22 24 26 30 33 35 37 38 36 29 28 26 22 21 20 21 21 19 17 24 24 27 34
28 25 22 20 18 16 15 14 13 12 11 10 8 8 7 7 8 15 10 10 11 13 17 26 27 29 32 36 40 41 37 32 34 32 30 27 24 24 22 20 18 23 24 24 26
27 25 22 19 18 16 15 14 13 11 10 9 9 8 8 8 16 21 10 7 6 7 9 15 23 28 30 35 40 42 35 39 36 37 37 33 27 25 22 21 22 21 25 21 23
28 25 22 19 18 17 16 15 14 12 11 12 11 11 11 11 15 15 9 8 8 8 13 16 17 22 28 33 37 44 40 43 41 41 40 37 34 27 25 21 23 24 23 26 25
29 25 21 19 18 18 17 15 14 13 13 12 12 11 11 16 15 13 11 10 10 11 10 9 11 17 21 27 36 40 40 42 42 43 42 42 38 33 27 28 26 23 22 24 28
29 25 22 20 20 19 18 17 16 15 14 13 12 10 12 16 12 14 12 10 15 15 17 17 16 15 17 19 22 28 37 42 45 44 43 44 43 43 30 33 31 29 25 23 23
33 27 24 22 21 20 19 18 18 16 14 12 9 8 13 14 12 11 10 10 9 11 10 11 14 17 15 19 22 24 31 34 36 42 45 47 42 39 38 40 36 32 30 27 25
36 31 26 24 24 25 25 21 19 16 14 10 9 12 17 12 12 11 10 10 9 9 8 7 9 10 9 12 19 24 25 26 29 37 41 46 35 37 39 43 39 37 35 32 30
41 36 33 31 31 27 23 21 19 15 13 11 15 14 21 15 13 10 11 10 8 10 9 8 11 11 11 11 10 9 22 23 27 31 29 41 36 39 43 42 41 43 40 38 36
38 34 32 30 28 26 23 21 19 18 14 15 17 15 19 18 12 11 12 11 9 11 10 12 12 13 16 15 13 9 11 17 20 28 37 36 38 40 45 46 43 44 42 39 39
38 35 33 31 28 26 23 21 18 27 17 12 14 14 17 14 12 12 12 11 12 10 11 12 12 14 14 16 14 15 14 12 13 14 30 40 39 39 39 38 42 42 42 41 39
36 34 33 32 27 25 25 21 19 16 20 17 18 18 16 14 14 14 13 13 12 14 14 14 15 16 17 17 14 12 13 13 11 11 18 28 35 36 35 36 36 40 40 39 39
36 35 33 29 26 31 26 21 20 19 23 22 19 18 15 14 15 16 18 17 16 17 20 21 19 20 18 17 17 15 17 13 14 15 20 23 29 28 28 30 33 35 33 33 37
37 33 32 29 33 32 31 22 21 17 28 26 25 25 18 16 20 17 22 18 18 21 27 25 24 33 35 31 29 26 17 16 20 22 24 21 22 23 24 26 29 26 23 25 28
35 33 29 28 32 33 26 21 22 26 36 28 21 17 17 18 19 19 18 19 19 27 29 24 29 32 33 32 38 41 26 27 22 22 31 27 20 13 22 23 22 24 27 27 27
36 31 32 36 36 29 24 20 25 41 42 25 20 19 18 20 21 20 20 21 23 34 31 31 35 39 47 52 56 52 52 43 37 28 37 26 21 15 16 21 21 26 31 31 30
33 31 31 35 45 28 20 32 39 44 24 24 24 20 19 23 21 22 21 28 36 50 49 35 30 42 60 66 53 63 72 56 54 44 36 22 26 18 19 18 23 28 38 41 42
34 33 32 37 34 24 31 39 45 29 23 26 22 20 24 21 23 23 30 31 33 51 50 54 39 50 51 65 79 85 74 64 63 52 32 24 38 18 20 19 29 42 55 50 50
32 35 40 37 27 26 39 51 40 32 30 26 22 25 25 24 25 31 35 36 46 52 73 68 37 48 64 65 69 75 66 51 54 48 43 36 33 23 20 23 25 48 59 61 59
38 45 46 32 24 32 45 46 36 30 25 28 29 28 26 27 29 33 37 41 49 56 66 58 55 45 55 64 67 81 67 63 54 56 53 43 34 27 20 25 31 50 53 62 65
41 49 48 30 24 42 51 51 39 34 28 32 33 33 30 31 35 40 40 46 57 52 54 56 68 48 66 94 91 89 84 68 55 39 48 53 43 24 26 27 37 45 52 44 82
49 52 52 29 42 50 50 45 37 36 36 34 33 30 36 36 39 41 46 50 51 53 48 56 67 69 68 76 77 76 87 75 53 48 41 42 38 29 39 40 45 55 69 57 67
48 57 49 33 57 54 54 46 36 37 36 39 38 35 36 36 43 38 46 47 52 59 49 53 60 77 53 58 59 61 61 68 68 59 51 48 34 33 40 52 43 53 73 80 79
56 58 54 44 48 58 60 49 43 35 34 31 27 34 35 45 45 41 39 45 49 44 41 51 70 83 85 76 65 72 73 79 69 66 45 43 31 29 46 64 90 70 72 92 89
58 63 64 60 51 50 54 45 43 46 34 30 36 33 38 47 50 43 40 38 38 48 42 58 69 73 66 59 57 72 74 80 67 64 70 41 39 34 52 74 88 70 72 73 68
53 62 61 56 64 60 56 49 46 43 37 34 34 34 34 42 47 44 39 37 36 34 40 51 69 67 61 59 55 52 78 89 64 58 70 56 59 74 63 68 84 96 84 76 76
63 59 63 63 63 60 57 48 45 38 33 30 27 31 36 40 39 33 30 25 26 35 42 59 70 68 70 62 59 79 97 89 97 77 75 69 72 80 80 81 81 79 99 89 80

GFSSW_prec_cthk_123.txt.gz
RH
32 31 28 25 23 21 20 18 16 15 14 13 11 10 10 8 9 11 13 11 12 12 15 21 22 23 24 29 36 38 37 32 33 30 26 24 22 24 26 22 21 21 21 25 27
34 31 29 26 23 22 19 17 15 14 14 12 11 10 9 8 12 15 11 9 7 7 8 14 17 22 25 27 30 35 34 36 37 36 32 30 28 27 30 24 23 23 23 28 31
37 35 30 27 25 22 19 16 15 14 14 13 12 11 11 10 18 21 14 10 7 7 8 11 12 15 19 23 27 32 31 36 36 40 39 36 32 32 30 27 24 24 25 26 28
41 38 33 28 26 21 19 17 17 16 16 15 14 13 12 13 17 16 14 12 10 10 9 8 11 12 14 18 23 25 28 33 33 39 42 40 40 37 36 28 25 27 24 25 27
44 40 35 30 26 22 20 19 19 18 18 17 16 14 12 16 16 17 12 10 9 11 13 14 13 10 11 14 15 17 20 25 29 33 40 42 42 40 37 32 32 26 24 24 25
47 42 36 31 27 23 21 21 21 20 20 19 17 14 13 16 15 13 11 8 9 10 10 10 13 15 13 10 12 14 16 14 16 22 31 40 41 46 35 40 38 31 26 25 24
52 45 40 35 28 25 23 24 24 23 23 19 17 14 14 14 13 10 8 10 8 8 7 7 7 8 10 10 7 9 13 14 15 20 21 30 39 39 40 44 42 40 34 29 28
55 47 44 40 36 32 31 32 34 35 30 27 19 16 16 16 14 10 9 9 8 8 8 8 8 8 11 11 9 10 9 10 7 11 16 25 30 29 35 46 49 47 44 39 32
54 48 44 42 40 39 39 35 30 28 27 21 19 19 19 17 13 11 10 10 8 8 8 8 10 12 13 14 14 13 13 10 8 6 8 12 19 21 29 38 47 45 46 46 43
54 51 45 42 39 37 35 33 31 30 26 23 21 21 20 18 13 11 12 10 10 9 8 10 14 16 16 19 21 19 19 14 13 8 12 15 15 22 33 38 45 50 46 47 48
52 48 40 39 38 38 34 33 30 31 26 19 19 16 16 14 13 13 13 11 11 11 13 12 14 16 15 18 18 18 19 18 13 11 16 14 13 14 23 39 45 50 46 49 47
51 44 39 38 37 34 34 33 29 27 27 23 20 19 15 14 15 15 13 14 13 14 13 16 19 19 20 19 21 20 21 18 15 13 18 17 17 13 13 32 43 38 38 46 47
49 41 40 38 35 38 36 32 28 24 27 26 23 22 16 15 16 16 16 17 15 16 17 22 22 25 25 20 23 23 26 28 28 20 19 18 16 12 11 14 38 39 32 40 40
50 43 39 38 41 41 39 32 25 24 40 28 27 26 19 16 19 17 19 17 17 17 19 23 25 25 20 23 26 32 32 37 37 36 32 23 24 16 11 11 21 33 31 32 37
48 41 39 42 44 41 38 30 28 34 51 34 27 24 18 18 18 19 19 18 19 20 21 26 28 27 25 30 41 48 46 48 48 48 48 31 33 10 12 10 11 16 26 26 31
44 44 40 41 40 37 32 32 37 48 50 27 24 23 20 20 22 23 22 22 21 25 26 27 28 26 33 37 53 56 63 56 50 52 68 39 35 14 14 10 11 20 25 25 29
50 43 46 46 45 40 34 40 46 54 30 28 27 24 21 24 24 25 25 27 27 34 34 25 26 27 39 46 44 60 72 87 75 63 60 44 38 23 20 14 13 25 30 49 35
49 43 47 41 41 35 41 45 53 37 32 31 27 23 23 25 27 27 28 30 29 31 38 45 44 36 37 52 57 61 73 84 96 74 54 45 41 21 20 19 20 28 40 49 42
45 48 46 46 35 35 44 56 50 37 35 31 25 27 28 31 30 30 29 32 29 32 48 52 41 38 38 46 81 89 92 88 95 80 69 57 45 26 20 18 25 32 54 60 68
51 54 57 41 31 40 49 50 42 38 35 30 29 28 31 32 32 33 29 30 33 38 45 51 47 34 35 40 71 85 90 93 82 78 61 53 46 33 33 34 26 33 51 56 57
57 60 50 40 33 43 52 47 44 40 35 31 34 36 35 35 34 34 35 31 38 44 42 44 54 37 39 48 60 73 86 96 97 76 61 57 39 39 42 42 38 34 49 49 55
64 59 56 42 40 47 45 52 44 43 37 34 33 34 34 37 36 33 36 33 39 39 44 48 51 49 39 39 57 69 76 90 97 94 79 50 38 35 49 46 49 62 60 62 71
54 55 59 42 52 56 48 48 47 41 42 41 40 40 39 35 36 35 33 33 35 44 52 46 52 63 42 37 52 63 72 74 84 82 70 60 42 44 58 60 81 74 69 73 77
60 64 59 48 46 55 61 57 52 41 41 42 36 33 34 33 37 40 37 33 32 40 45 43 54 76 77 62 55 64 64 70 81 93 67 45 59 72 72 80 83 94 93 85 84
67 62 58 60 48 55 63 55 51 51 43 36 36 34 34 38 37 39 36 31 25 29 37 39 48 53 61 57 57 63 66 90 97 83 73 61 74 83 84 77 86 89 96 98 92
60 69 65 64 67 54 55 54 54 51 47 44 41 35 35 35 36 39 34 29 28 25 28 33 55 56 54 56 60 65 95 97 99 93 77 74 74 86 83 80 77 86 92 97 95
71 63 65 65 62 63 60 56 50 50 46 42 38 31 28 30 30 29 26 22 22 27 31 50 59 61 61 62 66 95 96 96 98 98 90 84 80 79 81 91 90 88 91 95 96

GFSSW_prec_cthk_126.txt.gz
RH
41 38 34 31 28 24 23 21 19 17 16 15 13 12 11 10 12 12 11 10 9 9 9 15 19 20 21 25 31 33 34 36 34 33 30 31 29 28 28 25 22 21 23 23 27
44 41 38 34 30 27 25 23 20 17 16 15 14 12 11 11 14 16 13 10 8 7 8 8 13 17 19 21 23 27 34 32 31 32 30 32 34 32 30 28 24 24 26 23 27
45 43 42 38 34 30 27 24 20 18 17 15 14 13 13 12 18 19 15 14 11 10 9 10 10 10 14 17 20 22 24 24 25 27 30 31 33 38 34 31 30 29 29 43 32
46 45 45 42 38 33 29 24 21 19 18 17 16 15 14 17 23 19 19 15 13 10 10 10 11 11 10 10 13 15 15 18 20 23 26 27 29 32 38 29 34 31 34 37 53
52 47 48 44 40 35 31 26 23 21 20 19 19 18 16 21 18 17 16 13 12 10 10 10 11 12 13 13 12 12 13 14 14 15 16 18 21 27 29 34 33 35 36 35 36
57 51 51 48 42 37 33 27 24 23 23 22 22 20 20 19 17 15 14 11 9 9 10 10 10 10 9 10 10 8 9 8 8 10 12 16 15 19 16 31 40 38 35 35 35
60 58 53 51 47 40 37 32 29 27 30 30 28 26 25 21 18 18 13 10 9 8 7 7 8 8 8 9 9 10 10 6 4 5 6 10 11 14 13 20 32 42 44 37 35
65 62 60 53 46 45 43 39 39 41 39 34 32 30 29 25 21 15 11 10 10 9 8 9 10 10 10 10 13 13 11 12 6 7 7 8 9 7 10 15 18 26 40 44 38
67 64 58 50 46 43 44 51 43 42 39 35 32 28 27 22 19 14 13 11 10 11 10 11 11 12 14 17 18 16 18 15 10 11 11 13 12 7 7 9 12 16 23 36 45
73 76 68 62 51 40 49 43 43 43 41 37 34 32 28 24 19 14 12 12 12 11 11 11 14 16 18 19 24 22 22 18 17 13 17 13 13 9 10 10 10 11 19 29 35
86 84 69 58 55 52 41 42 44 43 39 32 30 25 23 19 16 15 14 13 13 12 14 14 15 17 19 20 21 22 24 23 18 18 22 19 17 13 10 11 10 9 14 25 39
89 82 69 56 42 39 40 41 41 39 38 32 27 23 21 18 17 17 15 15 14 15 16 17 19 19 19 20 20 19 21 19 17 18 25 24 23 18 14 10 9 9 11 20 44
83 76 65 54 47 43 42 37 36 35 36 35 29 26 20 19 19 18 18 17 15 16 18 20 21 22 21 20 21 19 25 27 31 22 21 27 24 20 15 14 10 9 9 17 42
76 68 52 51 50 49 46 45 37 32 41 33 30 26 21 20 20 20 18 17 18 19 19 20 23 22 22 22 23 24 29 36 33 38 46 39 50 26 21 17 12 9 9 15 38
69 58 52 46 58 51 50 47 36 38 50 39 34 29 23 20 19 20 20 20 21 20 20 23 24 24 21 21 28 33 35 35 42 51 59 41 56 31 23 19 13 10 10 15 31
66 57 52 49 51 56 48 39 46 47 50 37 30 27 23 22 22 22 23 22 22 22 22 22 20 19 22 25 32 36 44 51 49 60 74 39 65 48 34 22 15 12 11 14 21
59 54 49 46 58 51 41 48 56 56 38 33 31 29 24 24 24 25 26 25 28 30 28 21 24 23 28 27 28 41 58 78 65 63 64 51 62 44 32 23 19 16 16 18 17
58 51 49 62 47 52 49 56 59 47 38 34 33 30 26 27 28 29 28 29 27 29 34 38 35 27 28 37 38 45 80 96 95 84 75 58 57 38 30 22 25 21 25 31 36
58 45 52 41 57 47 53 63 44 44 42 38 34 31 32 32 31 32 30 35 28 29 38 41 37 26 28 32 42 60 82 84 97 84 87 69 42 31 29 33 33 35 30 47 58
52 57 50 53 45 46 62 51 48 41 40 38 36 32 35 37 36 34 31 30 30 33 35 36 39 25 27 31 48 65 68 85 84 95 94 62 47 52 41 37 42 39 44 58 96
59 62 52 55 38 58 57 53 47 44 43 41 39 36 37 37 36 34 35 31 32 30 31 33 43 34 28 42 53 65 70 84 93 89 96 90 55 75 71 67 64 56 39 41 89
63 68 65 46 55 51 52 53 46 46 44 42 38 37 36 37 35 34 35 30 27 30 35 36 43 44 34 42 53 62 68 79 95 79 84 96 67 68 63 84 81 81 71 64 77
64 69 73 54 52 54 55 54 49 48 47 42 40 38 38 37 37 35 35 29 27 30 33 38 44 50 34 44 49 54 53 68 85 88 87 94 67 60 65 82 85 94 93 84 87
69 76 70 55 50 54 56 53 54 52 49 46 44 40 38 36 35 40 37 33 28 29 32 37 44 49 62 56 58 61 63 88 98 97 90 78 69 74 75 79 93 90 97 99 97
71 75 62 58 47 65 62 57 54 57 49 45 43 37 36 39 37 33 29 29 25 25 25 31 41 37 46 51 63 65 92 94 98 98 97 86 76 90 93 92 96 96 95 94 98
68 69 64 63 61 60 66 62 65 57 52 48 42 41 37 37 34 30 30 28 27 21 21 25 37 46 50 58 64 74 86 88 95 96 85 77 83 76 91 97 96 97 95 90 97
67 67 68 64 65 61 61 68 56 57 57 54 45 39 36 33 28 27 26 21 20 21 25 38 48 56 52 58 63 96 91 84 95 97 96 85 87 94 97 97 96 98 98 98 97

GFSSW_prec_cthk_129.txt.gz
RH
40 38 37 38 35 31 28 25 23 22 19 17 15 13 12 12 13 15 12 11 9 9 8 13 15 16 16 20 24 26 31 34 30 29 29 32 34 34 30 26 27 25 27 30 30
42 41 40 37 36 34 31 29 26 24 21 18 16 14 13 13 16 18 17 12 11 9 10 9 12 14 16 17 20 24 29 29 27 27 27 28 29 32 30 28 27 28 29 30 31
44 43 42 41 37 36 35 32 29 25 22 19 18 16 15 14 19 20 19 16 16 13 11 11 12 12 13 14 17 20 21 20 20 20 20 21 22 25 27 27 31 30 29 31 31
53 47 44 42 39 37 39 36 33 29 24 21 19 18 17 17 25 22 22 20 17 15 13 12 11 12 11 12 13 14 12 13 14 14 14 15 15 16 19 23 33 33 31 30 35
55 53 50 47 43 40 38 37 35 32 26 24 22 20 19 21 21 20 18 19 17 14 13 13 12 12 12 12 11 10 10 11 11 10 10 11 12 12 11 16 23 37 37 34 36
63 58 57 55 54 45 41 40 37 34 30 28 26 23 24 28 22 19 18 16 13 12 12 12 13 12 9 10 10 8 8 8 6 5 5 6 6 7 7 9 11 20 35 40 36
68 63 57 59 54 51 47 41 38 35 35 33 33 31 29 26 27 22 20 17 13 14 12 13 12 10 9 10 11 11 12 9 8 8 8 8 6 5 5 5 6 9 15 29 39
61 67 65 61 58 58 53 45 40 37 38 43 44 39 33 32 29 25 22 17 15 15 12 11 11 11 12 13 14 13 13 15 11 10 11 12 10 6 7 8 6 5 8 13 25
60 64 68 66 61 57 53 46 42 48 53 57 52 45 40 36 30 24 18 17 15 13 13 12 12 14 17 17 17 18 20 18 16 14 16 17 15 8 11 10 9 8 6 6 11
65 71 70 68 69 62 52 49 48 56 53 52 45 42 38 33 31 25 22 19 17 13 13 14 15 17 18 20 26 24 24 21 20 16 17 20 17 13 13 14 11 10 9 7 7
76 73 77 77 79 74 68 50 51 45 44 43 41 37 35 33 30 26 20 18 16 14 15 15 18 21 20 20 21 23 23 22 15 15 17 20 18 15 13 15 12 10 10 9 8
69 73 85 87 76 66 52 54 51 49 50 46 40 36 32 27 24 21 20 18 17 18 17 18 23 22 21 22 22 22 22 19 15 17 21 21 18 12 11 12 12 11 9 9 9
69 84 93 84 72 63 60 49 41 40 41 41 37 36 30 27 24 22 21 20 19 19 19 20 23 24 22 21 21 21 21 21 26 18 17 27 22 17 15 19 15 13 12 8 10
73 82 88 77 69 55 47 44 34 36 46 43 40 34 29 27 25 22 21 20 20 20 21 23 26 23 22 21 22 25 21 24 24 27 38 28 53 31 25 31 25 23 19 12 9
81 90 82 76 64 54 50 44 40 48 54 46 41 36 30 26 25 24 22 20 21 22 23 25 24 21 22 22 21 23 23 25 27 33 49 31 69 35 46 46 38 34 29 19 10
92 88 80 65 64 58 50 44 56 56 58 51 43 36 33 33 29 26 24 23 24 26 25 24 21 21 21 21 21 23 26 26 33 47 62 46 62 57 50 49 44 37 26 17 11
91 76 72 62 56 56 52 47 59 62 47 42 40 37 33 29 29 28 28 28 28 26 30 30 26 22 19 20 20 24 34 60 57 54 47 47 67 55 55 53 50 35 29 20 15
91 79 65 57 62 53 52 59 65 49 48 42 37 35 33 32 32 31 31 32 30 30 34 38 33 25 21 22 26 31 56 83 92 74 63 54 68 53 58 66 66 56 46 35 32
74 68 62 63 55 53 57 73 51 55 47 43 38 37 36 35 34 34 33 37 29 31 35 38 37 27 23 21 26 41 63 65 92 76 87 58 49 45 57 71 80 70 57 47 47
71 67 67 62 54 59 62 52 57 54 48 44 42 40 42 39 39 37 34 33 31 32 31 32 40 27 22 21 32 46 56 72 88 90 79 61 55 59 61 73 72 78 77 71 62
68 68 66 53 57 62 69 62 51 54 47 45 45 44 43 41 40 39 38 35 31 32 30 30 36 30 22 33 41 56 67 73 78 92 92 84 54 60 76 77 76 79 87 83 68
71 78 65 57 62 72 67 52 56 49 47 47 47 45 44 42 41 40 38 31 30 28 31 33 39 41 26 31 39 53 61 73 97 88 83 94 64 72 78 82 80 80 97 87 86
82 78 74 56 69 71 52 56 49 50 50 50 50 46 43 42 42 37 36 34 29 29 31 32 38 43 27 32 34 53 65 76 97 97 96 97 69 66 81 85 86 88 94 96 94
72 86 78 63 71 60 64 54 50 51 54 52 48 48 45 41 38 41 39 33 30 29 29 30 35 33 41 35 49 61 65 78 92 97 91 88 86 85 86 88 91 89 95 95 98
79 78 70 60 70 71 62 49 54 56 58 53 52 49 46 45 42 40 35 32 28 26 25 23 30 35 30 37 53 62 72 85 94 98 97 86 91 90 90 91 97 95 97 96 98
73 81 77 75 68 61 58 62 60 59 57 60 58 52 46 44 37 36 33 30 25 21 21 21 24 32 32 44 58 67 85 86 85 95 87 88 83 90 93 95 96 92 92 91 98
74 69 70 72 65 61 65 61 61 62 62 59 52 48 46 42 35 31 26 24 21 22 23 27 39 43 46 51 63 88 86 84 80 90 96 93 92 94 92 97 93 87 86 90 95